GFSSE_prec_cloud_048.txt.gz
Cloud_Cover
100 82 100 98 96 100 69 97 73 84 67 100 100 93 100 100 100 100 98 80 100 7 59 54 1 3 2 3 2 0 0 0 0 0 8 1 0 0 0 0 0 0 0
92 99 96 98 100 100 62 85 100 100 97 88 100 100 100 100 100 100 100 100 100 100 28 0 0 0 0 0 0 0 0 0 2 5 17 1 97 22 0 0 0 0 0
100 100 100 100 100 100 98 96 87 9 8 83 100 98 73 65 100 100 100 100 91 9 3 0 0 0 4 0 0 0 0 5 31 6 96 61 100 10 0 0 0 0 0
100 100 100 100 100 100 90 100 100 98 5 5 30 14 20 92 74 100 78 55 5 5 7 5 5 5 0 2 5 3 5 46 62 57 25 84 66 0 0 0 0 0 0
57 100 100 100 100 77 100 100 100 99 16 5 24 79 58 27 73 100 18 2 5 5 5 5 5 5 22 17 13 5 9 62 63 9 20 9 4 0 0 0 0 0 0
88 100 100 100 100 100 100 100 75 93 100 94 100 63 73 5 5 100 48 5 5 5 5 5 78 100 100 83 100 100 100 78 5 6 0 0 0 0 0 0 0 0 0
100 100 100 100 100 100 100 100 100 100 100 100 100 100 80 84 100 100 62 36 41 47 100 91 91 100 100 95 64 100 7 29 2 5 4 0 0 0 0 0 0 0 0
100 100 100 100 100 100 100 100 100 100 100 100 100 100 100 100 97 96 100 100 100 100 100 100 100 100 100 100 100 36 97 26 4 6 11 0 0 0 0 0 0 0 0
100 100 100 100 100 100 100 100 100 100 100 100 100 100 100 100 100 100 100 100 100 100 100 100 100 100 100 95 12 10 5 5 5 10 5 1 0 0 0 0 0 0 0
100 100 100 100 100 100 100 100 100 100 100 100 100 100 100 100 100 100 100 100 100 100 100 100 100 100 100 62 45 96 7 0 0 0 0 0 0 0 0 0 0 0 0
100 100 100 100 100 100 100 100 100 100 100 100 100 100 100 100 100 100 100 100 100 100 100 100 100 95 21 11 17 4 5 0 0 1 2 3 1 6 0 0 0 0 0
100 100 100 100 100 100 100 100 100 100 100 100 100 100 100 100 100 100 100 100 100 100 100 52 72 10 5 2 5 4 0 0 0 0 0 5 98 91 5 0 0 0 0
100 100 100 100 100 100 100 100 100 100 100 100 100 100 100 100 100 100 100 100 100 74 30 72 89 100 5 5 3 0 0 0 0 0 0 100 100 63 38 5 8 0 0
100 100 100 100 100 100 100 100 100 100 100 100 100 100 100 100 100 100 100 100 100 100 97 23 17 4 5 4 5 26 1 1 6 100 100 49 64 5 93 72 0 0 0
100 100 100 100 100 100 100 100 100 100 100 100 100 100 100 100 100 100 100 100 100 98 89 75 99 13 55 37 18 44 51 100 100 100 20 2 5 4 22 30 3 2 0
100 100 100 100 100 100 100 100 100 100 100 100 100 100 100 100 100 99 100 82 69 100 86 82 89 100 98 100 79 100 100 100 22 32 5 3 10 5 9 62 100 60 3
100 100 100 100 98 100 100 100 100 100 100 100 100 100 100 100 100 90 100 100 72 100 100 100 100 100 100 100 100 100 59 94 100 59 0 0 2 1 0 0 25 100 14
78 97 59 100 100 100 100 99 100 100 100 100 100 100 100 96 46 88 99 45 36 97 100 100 100 98 100 100 100 100 100 36 4 5 1 5 1 2 2 5 6 1 0
64 98 100 100 100 100 100 98 90 96 100 100 100 100 97 95 100 100 100 81 100 100 94 100 100 95 8 12 0 1 0 4 5 2 0 0 1 6 54 31 5 23 5
100 100 98 86 96 97 87 78 80 73 27 76 94 38 100 100 65 77 91 100 12 0 0 48 79 1 0 0 0 1 3 4 7 22 39 57 14 99 100 85 66 5 70
100 100 100 100 100 100 71 87 23 5 5 22 17 5 5 4 31 74 15 26 3 1 0 2 5 5 5 5 5 5 5 8 5 62 5 2 2 78 98 91 94 80 18
36 44 100 100 95 36 24 6 5 5 4 0 3 5 4 6 5 5 5 5 5 4 5 3 0 2 3 5 2 5 5 3 0 1 0 0 3 58 65 31 40 72 26
100 100 100 73 10 51 90 5 5 0 0 5 5 5 7 59 5 5 5 5 5 5 5 3 0 0 0 5 2 3 5 5 5 5 3 1 4 5 22 48 59 15 10
52 100 83 27 4 33 5 3 0 5 5 5 6 63 3 5 5 5 5 5 5 36 5 0 0 0 0 2 1 5 4 6 6 5 4 3 5 1 0 2 14 5 73
86 1 1 16 0 5 5 5 5 34 96 100 90 21 18 7 5 6 5 5 5 5 5 4 5 5 5 5 5 3 5 5 5 14 8 5 4 3 1 4 5 0 5
1 42 87 0 1 5 5 5 5 37 17 34 5 5 5 39 89 38 5 5 5 5 2 5 5 5 5 5 4 5 22 100 43 86 63 5 5 0 0 5 7 4 4

GFSSE_prec_cloud_051.txt.gz
Cloud_Cover
100 100 93 100 69 98 99 88 70 78 88 58 68 95 95 100 100 100 100 100 100 100 100 36 5 5 5 11 28 2 1 2 2 0 0 1 0 0 3 0 0 0 0
79 100 100 100 100 100 100 100 91 71 13 6 35 99 5 5 4 5 4 3 4 9 8 5 5 1 5 7 4 2 0 0 0 0 3 18 53 9 3 3 0 0 0
98 100 100 100 100 100 100 100 96 83 33 100 100 98 25 5 5 5 8 11 91 36 5 5 1 0 3 2 0 0 0 21 5 2 5 85 100 16 0 0 0 0 0
58 100 100 100 100 96 100 100 99 100 95 83 100 100 90 82 85 100 100 46 30 5 5 41 7 4 0 0 0 0 0 7 5 100 99 14 4 4 0 0 0 0 0
84 65 100 99 88 100 100 100 100 100 100 99 100 100 100 100 100 99 98 92 57 81 97 80 100 5 2 4 0 0 5 82 100 23 54 3 5 1 0 0 0 0 0
94 56 86 100 100 100 100 100 100 100 100 100 100 100 100 100 100 100 100 96 74 100 100 77 96 86 5 5 5 5 88 19 100 99 8 11 4 0 0 0 0 0 0
100 100 100 100 100 100 100 100 100 100 100 100 100 100 100 100 100 100 82 100 100 100 100 91 5 5 5 5 5 40 100 19 100 100 67 5 1 0 0 0 0 0 0
100 100 100 100 100 100 100 100 100 100 100 100 100 100 100 99 99 100 100 100 100 100 72 65 100 50 5 100 62 100 100 100 100 9 4 5 0 0 0 0 0 0 0
100 100 100 100 100 100 100 100 100 100 100 100 100 100 100 98 100 100 100 100 100 100 100 86 99 100 100 100 100 100 72 16 16 5 2 0 0 0 0 0 0 0 0
100 100 100 100 100 100 100 100 100 100 100 100 100 100 100 100 100 100 100 100 100 100 100 100 100 94 100 100 21 9 100 6 2 15 0 0 0 0 0 0 0 0 4
100 100 100 100 100 100 100 100 100 100 100 100 100 100 100 100 100 100 100 100 100 100 100 67 100 100 100 100 100 50 44 67 5 4 0 0 0 0 0 0 0 1 4
100 100 100 100 100 100 100 100 100 100 100 100 100 100 100 100 100 100 100 100 100 95 75 100 100 95 72 44 95 77 59 5 9 5 0 0 0 1 1 3 94 77 5
100 100 100 100 100 100 100 100 100 100 100 100 100 100 100 100 100 100 100 100 100 100 100 100 100 100 98 84 55 8 5 0 3 0 1 0 0 0 96 100 100 95 21
100 100 100 100 100 100 100 100 100 100 100 100 100 100 100 100 100 100 100 100 100 100 100 100 100 100 56 3 3 4 5 5 13 11 6 5 100 41 86 15 2 31 96
100 100 100 100 100 100 100 100 100 100 100 100 100 100 100 100 96 100 100 100 100 100 100 100 100 70 80 64 99 100 99 99 100 90 100 100 100 100 100 100 90 6 1
100 100 100 100 100 100 100 100 100 100 100 100 100 100 100 100 98 100 100 100 85 93 100 79 97 97 33 80 100 80 100 100 100 100 100 100 78 97 100 56 0 0 0
100 100 100 100 100 100 100 100 100 100 100 100 100 100 100 100 100 100 100 69 95 100 80 89 95 94 94 98 100 97 1 14 100 51 25 0 0 0 0 0 0 0 0
100 100 100 100 100 100 100 100 100 100 100 100 100 98 90 100 100 100 99 68 90 98 100 78 15 1 5 3 1 0 0 0 0 0 0 0 0 0 0 1 5 5 5
100 100 100 100 100 100 100 96 100 100 100 100 91 100 100 93 78 6 5 5 5 40 57 2 0 4 0 0 0 0 0 0 0 0 0 2 4 5 59 66 75 72 21
100 100 100 100 100 100 90 100 66 89 100 92 86 99 73 38 10 5 5 5 4 0 0 0 0 0 0 0 0 0 0 0 0 0 2 4 2 70 77 14 24 96 88
100 100 100 75 100 100 100 100 100 100 100 100 100 29 5 5 5 2 0 0 0 0 0 2 0 0 5 0 0 0 0 0 0 0 0 0 0 0 5 22 77 82 96
76 49 100 100 100 100 99 66 57 98 72 6 52 16 3 4 5 5 5 3 5 5 5 5 5 4 0 0 0 0 0 0 0 0 0 4 5 4 5 51 99 100 90
100 100 100 100 100 100 100 100 59 55 42 17 1 0 5 5 5 5 3 1 0 2 5 5 1 0 0 0 0 0 2 1 5 5 6 22 16 5 5 3 0 0 2
80 47 59 93 20 16 7 15 16 2 0 0 0 2 0 0 0 0 0 0 4 5 5 0 0 0 0 0 0 0 0 2 5 5 36 11 5 5 0 0 0 0 0
76 43 11 5 5 5 1 47 2 1 0 0 0 3 12 33 76 6 5 5 5 1 4 5 5 5 0 0 5 5 5 5 5 5 6 5 5 5 5 4 1 0 1
91 20 1 0 0 4 66 5 5 0 0 14 86 97 100 71 51 5 5 5 5 0 0 3 4 4 5 5 5 5 4 5 8 82 50 6 5 5 5 0 3 0 0

GFSSE_prec_cloud_054.txt.gz
Cloud_Cover
99 84 98 91 100 95 100 88 14 53 87 98 100 83 28 11 60 19 9 51 79 9 5 5 1 3 4 0 0 0 0 0 0 0 0 16 41 0 0 5 0 0 0
99 74 43 100 100 100 100 100 94 91 100 95 100 100 97 46 49 12 5 6 5 5 39 5 0 0 2 0 0 5 2 0 0 0 18 100 46 1 5 5 0 5 2
100 77 95 70 90 100 100 100 100 97 100 100 99 100 100 81 76 45 33 58 56 50 25 5 6 5 2 5 5 0 0 0 0 0 0 0 1 4 5 9 3 0 0
100 95 73 54 74 100 100 100 100 100 100 100 100 100 100 100 100 100 99 100 100 88 77 72 10 22 46 4 0 0 0 0 4 0 0 4 52 100 99 18 5 0 0
100 100 99 52 86 100 100 100 100 100 100 100 100 100 100 100 100 100 100 100 100 100 90 38 6 5 5 69 83 5 0 91 5 0 2 74 100 47 11 11 0 0 0
100 97 100 80 100 100 100 100 100 100 100 100 100 100 100 100 100 100 100 100 100 100 100 100 9 5 39 100 100 5 85 72 5 47 98 100 3 2 0 5 1 0 0
100 100 100 100 100 100 100 100 100 100 100 100 100 100 100 100 100 100 100 100 100 100 100 100 6 16 100 100 0 27 100 6 100 100 96 73 5 4 1 5 2 0 0
100 100 100 100 100 100 100 100 100 100 100 100 100 100 100 100 100 100 100 100 100 100 87 41 95 100 75 100 64 100 82 8 100 100 20 12 4 4 5 5 1 2 1
100 100 100 100 100 100 100 100 100 100 100 100 100 100 100 100 100 100 100 100 100 100 87 100 100 100 37 82 100 99 94 100 100 11 5 5 3 2 5 2 0 0 0
100 100 100 100 100 100 100 100 100 100 100 100 100 100 100 100 100 100 100 100 100 87 100 100 100 100 100 100 99 100 100 83 100 12 6 5 7 5 4 5 5 0 0
100 100 100 100 100 100 100 100 100 100 100 100 100 95 100 100 97 84 100 100 100 100 100 100 100 100 100 100 98 65 89 12 89 76 5 16 4 5 5 5 0 0 0
100 100 100 100 100 100 100 100 100 100 100 100 100 100 100 100 100 100 100 100 100 100 100 100 100 100 100 92 21 99 73 100 11 42 3 3 5 1 3 0 4 0 42
100 100 100 100 100 100 100 100 100 100 100 100 100 100 100 100 100 100 100 100 100 100 100 100 100 100 100 100 100 100 42 35 7 1 5 5 69 27 1 5 93 57 55
100 100 100 100 100 100 100 100 100 100 100 100 100 100 100 98 100 100 100 100 100 100 100 100 100 100 100 100 63 74 5 22 6 9 3 5 2 63 65 98 100 100 100
100 100 100 100 87 100 100 100 100 100 100 100 100 100 100 100 100 100 100 100 100 100 100 100 100 100 100 100 85 85 100 100 76 15 34 43 4 3 0 0 12 12 3
100 100 100 100 100 100 100 100 100 100 100 100 100 100 100 100 100 100 100 100 100 100 100 100 100 55 72 66 6 10 5 5 1 0 0 0 0 0 0 0 0 0 0
100 100 100 100 100 100 100 100 100 100 100 100 100 100 98 100 100 100 100 100 100 100 100 100 22 7 6 5 5 4 0 0 0 0 0 0 0 0 0 0 0 0 5
100 100 100 100 100 100 100 100 100 100 100 100 99 100 100 100 100 100 100 96 96 92 53 8 5 5 5 4 0 0 0 0 0 0 0 0 0 0 0 2 5 5 5
100 100 100 100 100 100 100 100 100 100 100 100 100 100 100 100 100 95 89 46 22 34 17 23 7 4 0 0 0 0 0 0 0 0 0 0 0 0 8 28 34 38 88
100 100 100 100 100 100 100 100 100 100 100 100 100 100 100 86 98 94 40 87 76 11 22 9 0 0 0 0 0 0 0 0 1 2 0 0 0 0 1 5 62 92 100
100 100 100 100 100 100 100 100 100 100 100 100 100 100 100 100 100 71 56 14 5 0 0 0 0 0 4 0 0 0 0 0 0 0 0 0 2 1 2 0 4 5 47
100 100 100 100 100 100 100 100 100 99 90 90 82 100 50 84 47 37 4 0 0 0 1 5 5 5 0 0 0 0 0 0 0 5 5 5 5 5 5 5 5 0 0
100 77 100 100 100 100 100 100 100 100 100 83 68 52 16 23 4 5 0 0 0 4 5 5 4 0 0 0 0 0 0 0 5 5 6 12 5 5 5 5 0 0 0
8 9 59 71 70 59 26 10 6 13 7 5 5 1 0 4 5 0 0 5 4 0 5 5 5 3 0 3 4 3 0 0 2 8 32 7 5 5 5 5 0 0 0
96 51 98 97 59 52 6 7 10 8 5 5 0 0 0 0 2 5 3 5 5 7 78 67 99 4 6 5 1 2 2 5 5 5 6 8 5 5 5 5 5 4 5
63 6 12 70 41 50 5 2 3 37 5 5 1 0 3 5 5 25 74 67 9 20 64 89 94 99 6 5 5 5 5 5 5 5 6 41 87 6 5 5 5 1 3

GFSSE_prec_cloud_057.txt.gz
Cloud_Cover
100 100 97 85 24 30 85 100 96 88 94 22 18 5 5 5 19 26 5 27 10 7 5 0 0 4 0 0 1 0 0 1 0 1 9 4 0 0 0 0 0 3 11
78 100 69 77 15 49 100 96 97 100 96 70 66 5 5 45 5 5 5 8 50 6 4 5 0 5 5 5 5 4 0 0 0 0 0 0 0 0 0 0 0 4 86
85 100 100 63 68 91 100 97 100 100 86 100 73 5 25 97 5 45 32 65 21 11 5 5 5 5 5 4 5 29 0 0 2 2 5 0 0 0 5 0 4 26 26
73 99 76 34 83 100 100 100 100 100 100 100 100 60 94 100 100 100 72 65 58 35 15 45 5 18 57 14 36 6 2 0 2 25 25 0 3 4 2 0 98 70 3
72 83 100 22 7 39 100 100 100 100 100 100 100 100 100 100 100 100 100 100 58 85 92 18 8 10 6 98 76 100 64 54 87 20 6 79 5 4 73 32 7 5 0
100 82 31 6 74 11 100 100 100 100 100 100 100 100 100 100 100 100 100 100 41 86 67 66 53 42 6 100 92 18 73 64 88 45 1 63 99 96 18 9 7 1 0
100 93 97 100 100 100 100 100 100 100 100 100 100 100 100 100 100 100 100 100 100 100 86 92 79 3 6 75 70 78 100 100 100 68 100 79 6 9 2 2 0 0 0
100 90 100 100 100 100 100 100 100 100 100 100 100 100 100 100 100 100 100 100 98 97 44 17 12 56 6 20 92 100 100 100 100 45 5 48 11 5 3 5 5 5 5
100 97 100 100 100 100 100 100 100 100 100 100 100 100 100 100 100 100 100 100 100 100 50 67 44 98 34 94 100 100 100 100 52 5 5 100 8 65 22 5 5 0 0
100 100 100 100 100 100 100 100 100 100 100 100 100 100 100 100 100 100 100 100 100 100 100 100 100 100 100 96 65 6 5 68 80 19 27 66 27 37 5 3 5 5 5
100 100 100 100 100 100 100 100 100 100 100 100 100 100 100 100 93 100 100 100 100 100 100 100 100 96 97 72 90 33 5 7 13 49 61 96 80 36 4 0 5 3 3
100 100 100 100 100 100 100 100 100 100 100 100 100 100 93 100 100 100 94 100 100 100 99 38 77 80 86 61 100 98 98 70 72 94 43 5 48 4 4 5 5 2 0
100 100 100 100 100 100 100 100 100 100 100 100 100 100 100 100 100 100 100 100 100 100 97 98 100 100 100 98 100 100 100 100 55 6 5 5 3 2 2 0 0 0 0
100 100 100 100 100 100 100 100 100 100 100 100 100 100 100 100 100 100 94 98 100 100 86 100 100 100 100 100 100 100 70 4 5 11 5 1 2 3 0 0 0 0 0
100 89 100 100 100 100 100 100 100 100 100 100 100 100 100 100 100 100 100 100 100 100 100 100 85 100 100 100 73 5 6 16 57 5 5 0 0 0 0 0 0 0 4
100 100 100 99 100 100 100 100 100 100 100 100 100 100 100 100 100 100 100 100 72 40 93 99 100 91 39 55 9 28 19 26 58 4 0 0 0 0 0 0 0 0 6
100 100 100 100 100 100 100 100 100 100 100 98 86 100 100 90 100 100 100 100 89 98 100 100 100 96 78 95 59 35 14 21 0 0 0 0 0 0 0 0 0 0 0
100 100 100 100 100 100 100 100 100 100 100 100 100 100 100 100 100 100 58 75 100 95 100 100 100 100 99 62 13 54 3 0 0 0 0 0 0 0 0 0 2 5 5
100 100 61 100 100 100 100 100 100 100 100 100 100 100 100 100 84 100 100 100 100 100 100 92 94 56 26 66 22 1 0 0 0 0 0 0 0 0 0 0 5 5 5
100 100 100 65 84 100 94 100 100 100 98 100 81 90 100 100 100 100 100 100 100 93 70 53 80 64 5 0 0 0 0 0 0 0 0 0 0 0 0 1 0 4 5
100 100 100 100 100 100 100 100 100 100 100 100 100 100 100 100 100 100 100 100 90 33 96 92 12 0 0 0 0 0 0 0 0 0 0 0 0 0 0 0 0 0 0
99 100 100 100 100 100 100 100 100 100 100 100 100 100 82 99 100 91 94 87 42 56 42 0 0 0 2 5 5 5 1 2 5 4 0 0 5 5 5 3 1 0 5
100 100 100 100 100 100 100 100 100 100 99 99 88 81 99 96 56 16 47 26 4 0 0 5 4 5 35 70 83 89 19 6 1 0 5 5 6 62 6 5 5 4 3
32 27 96 100 98 21 30 42 98 23 23 77 90 63 49 61 6 2 0 4 5 5 5 5 2 5 10 80 84 100 58 5 0 2 5 5 92 66 8 5 5 7 5
35 88 96 84 23 56 99 100 100 68 23 70 93 8 4 0 0 5 5 5 7 10 5 3 5 34 31 59 21 2 0 5 5 5 10 5 5 7 5 6 54 97 84
26 10 18 8 5 18 77 100 100 97 7 66 96 5 5 5 5 39 85 5 81 94 94 12 16 49 7 28 65 5 5 5 5 5 32 5 5 5 5 5 5 5 5

GFSSE_prec_cloud_060.txt.gz
Cloud_Cover
99 74 93 100 100 97 43 5 55 40 88 100 69 9 79 46 5 15 5 1 5 2 4 1 4 5 4 4 5 4 0 0 0 0 2 0 0 0 0 0 0 0 1
96 40 5 15 12 15 12 62 29 81 93 100 100 77 35 55 64 100 5 5 5 5 5 5 5 4 0 1 2 2 5 0 5 4 5 2 0 0 0 0 0 0 0
100 100 96 52 12 8 5 5 28 15 100 100 100 100 100 99 95 100 43 70 28 58 14 5 3 5 5 5 5 4 0 0 5 5 3 2 1 0 0 0 0 0 4
81 100 83 59 10 8 5 5 55 100 87 100 100 100 100 100 100 100 82 77 14 81 15 5 0 5 5 4 4 5 0 1 1 5 5 5 5 44 46 17 74 89 6
98 100 55 5 5 26 12 83 76 89 100 100 100 100 69 68 95 78 33 74 81 74 5 18 6 5 5 5 5 5 4 0 0 5 13 63 94 100 49 94 10 0 0
100 100 30 5 16 74 100 100 100 100 62 100 100 100 100 92 100 100 100 88 64 7 5 14 5 97 8 5 4 4 0 1 4 3 22 38 6 5 0 0 0 0 0
87 55 7 96 100 100 100 100 100 100 100 100 100 100 100 100 100 100 100 100 100 100 67 100 7 15 10 5 5 0 0 2 0 1 5 21 11 0 0 0 0 0 2
100 95 100 100 100 100 100 100 100 100 100 100 100 100 100 100 100 100 100 100 59 61 100 100 96 73 86 56 2 5 4 5 5 5 3 0 2 4 5 5 9 3 5
100 100 100 100 100 100 100 100 100 100 100 100 100 100 100 100 100 100 88 86 12 8 39 81 88 10 36 6 35 58 100 100 5 5 5 5 5 3 5 5 5 10 9
100 100 100 100 100 100 100 100 100 100 100 100 100 100 100 100 100 100 100 100 100 100 88 100 38 97 40 51 79 16 8 5 16 98 83 56 94 83 100 46 5 1 5
100 100 100 100 100 100 100 100 100 100 100 100 100 100 100 100 100 100 100 100 100 62 98 94 79 100 97 94 68 100 54 5 18 25 79 92 86 7 5 4 1 1 5
98 100 100 100 100 100 100 100 100 100 100 100 100 100 100 100 100 100 100 100 98 93 100 100 100 100 56 10 16 20 72 60 36 62 35 2 5 6 3 2 0 0 0
100 100 100 100 100 100 100 100 100 100 100 100 100 100 100 100 100 100 100 97 98 100 100 100 100 100 100 14 6 9 5 5 45 100 19 4 0 0 11 0 0 0 0
100 100 100 100 100 100 100 100 100 100 100 100 100 100 100 100 100 100 100 100 100 100 97 95 95 5 10 34 4 5 95 44 3 5 8 5 0 0 4 0 9 17 7
98 100 100 100 100 100 100 100 100 100 100 100 100 100 100 100 100 100 100 100 100 100 100 56 84 100 80 62 6 51 32 6 4 5 5 5 5 1 0 10 7 10 100
100 100 100 100 100 100 100 100 100 100 100 100 100 100 100 100 100 100 100 100 100 100 100 98 100 90 10 9 23 60 7 42 63 48 8 3 0 0 0 0 0 0 0
100 100 100 100 100 100 100 100 100 100 100 100 100 100 100 100 100 100 100 100 100 100 72 100 58 6 68 98 100 100 26 5 37 6 4 0 0 0 0 0 0 0 0
100 100 100 100 100 100 100 100 100 100 100 100 100 100 100 100 100 100 96 100 99 44 41 18 18 56 74 85 34 5 6 56 6 0 0 0 0 0 0 0 0 0 0
96 97 77 100 100 63 100 100 100 100 87 100 100 100 100 100 98 49 67 37 27 54 24 60 91 78 61 23 26 39 10 0 0 0 0 0 0 0 0 0 0 0 0
63 99 96 97 100 100 100 100 100 100 100 100 82 93 100 94 98 100 90 98 94 98 40 62 98 87 99 46 24 1 0 0 0 0 0 1 0 0 0 0 0 0 0
68 100 100 100 100 100 91 79 51 20 100 100 100 100 100 100 100 100 98 100 100 100 100 86 59 75 16 0 0 0 0 0 1 5 5 5 5 0 0 0 0 0 0
100 100 100 99 100 100 98 100 100 100 100 100 100 100 100 100 100 100 96 81 75 100 80 8 8 1 0 1 4 5 2 2 0 1 0 0 0 5 5 5 5 0 0
100 100 100 74 17 38 100 100 100 100 100 100 100 100 100 100 100 45 59 100 100 33 4 5 1 0 0 2 4 3 3 5 2 2 3 1 5 5 5 5 5 5 0
98 99 99 91 68 83 100 99 100 100 100 94 100 87 78 70 33 97 100 63 5 3 4 38 94 71 51 54 81 99 97 6 5 2 1 0 1 4 5 5 5 5 5
67 100 100 100 89 97 95 100 97 100 100 77 91 90 100 98 76 9 3 6 36 9 5 95 100 74 83 96 98 97 100 99 72 5 13 0 2 3 5 5 5 5 32
78 74 100 100 90 100 100 100 100 100 100 42 86 47 99 62 1 1 5 33 5 20 100 100 100 86 100 94 42 60 77 5 5 7 40 8 5 5 5 5 5 6 24

GFSSE_prec_cloud_063.txt.gz
Cloud_Cover
90 90 77 85 100 100 56 6 38 56 28 97 100 100 100 100 100 100 29 65 44 50 4 0 0 0 0 0 0 0 0 3 0 0 0 0 0 0 0 0 0 0 0
82 94 77 84 62 25 11 5 5 5 49 5 22 98 49 68 100 99 86 68 13 5 5 1 3 5 0 0 3 0 0 0 2 0 0 0 0 0 5 2 0 0 3
70 38 2 3 6 53 5 5 5 5 55 5 5 100 5 51 66 99 55 35 22 5 5 6 5 4 0 0 0 0 0 0 2 1 0 0 0 0 0 2 5 83 3
70 37 18 5 16 5 5 5 5 5 5 15 43 100 5 73 100 81 94 70 30 66 26 36 5 2 0 2 0 0 2 4 5 0 0 0 0 0 0 0 4 15 0
95 87 40 4 11 5 5 19 92 100 81 18 63 100 91 100 70 97 99 97 100 99 100 58 81 5 5 0 1 5 5 1 0 0 0 0 0 0 0 0 0 0 2
95 95 5 5 31 76 93 89 100 100 90 65 100 73 99 100 94 95 100 100 100 27 91 54 10 14 78 90 75 5 4 5 4 0 0 0 0 0 0 0 0 0 0
98 100 31 34 100 100 100 98 100 100 100 96 95 93 100 100 100 100 100 82 58 78 40 23 28 11 98 99 100 77 28 9 1 0 0 0 0 0 0 0 0 0 0
100 100 100 100 100 100 100 100 100 100 100 100 100 100 100 100 100 100 99 98 79 89 54 5 68 67 37 9 13 4 2 2 2 2 0 0 0 0 0 0 0 2 4
88 100 100 100 100 100 100 100 100 100 100 100 100 100 100 100 100 100 100 80 100 55 62 62 100 100 68 59 5 5 5 5 10 7 3 0 0 0 0 1 0 3 4
100 100 100 100 100 100 100 100 100 100 100 100 100 100 100 100 100 100 100 98 98 75 92 93 81 15 5 5 30 97 15 5 96 27 5 5 5 44 5 5 4 0 0
100 100 100 100 100 100 100 100 100 100 100 100 100 100 100 100 100 100 100 98 99 60 100 71 49 10 5 48 96 78 16 2 5 5 6 6 30 4 5 0 0 0 0
100 100 100 93 100 100 100 100 100 100 100 100 100 100 100 100 100 100 100 100 96 86 62 48 72 57 99 97 58 72 30 8 0 1 3 1 0 9 4 5 0 0 0
100 100 100 100 100 100 100 100 100 100 100 100 100 100 100 100 100 100 100 100 100 88 73 85 94 100 100 5 5 4 6 16 0 0 0 2 15 23 8 0 7 0 0
100 100 100 100 100 100 100 100 100 100 100 100 100 100 100 100 100 100 100 100 100 100 100 100 100 100 100 65 5 5 5 3 0 0 5 8 5 5 5 5 15 0 22
100 100 100 100 100 100 100 100 100 100 100 100 100 100 100 100 99 100 96 100 100 100 100 100 100 100 100 69 6 5 4 0 5 5 5 5 5 5 6 10 11 4 2
100 96 100 100 100 100 100 100 100 100 100 100 100 100 100 100 100 100 100 100 100 100 99 74 82 78 43 5 5 5 2 5 21 8 11 5 5 2 0 0 0 1 0
100 100 100 100 100 100 100 100 100 100 100 100 100 100 100 100 100 100 100 97 82 100 100 100 100 100 95 19 4 5 92 90 28 5 29 5 0 0 0 0 0 0 0
100 100 100 100 100 100 100 100 100 100 100 100 100 100 100 99 100 100 100 94 100 100 100 100 100 83 36 21 95 16 11 38 11 5 5 0 0 0 0 0 0 0 0
100 100 100 60 100 100 100 100 100 100 100 100 99 99 100 100 100 100 100 100 99 100 70 99 89 12 5 6 5 11 15 22 5 2 0 0 0 0 0 0 0 0 0
53 97 100 100 100 100 100 100 100 100 100 100 100 100 100 100 97 86 59 68 30 7 32 35 14 8 34 26 47 45 8 2 0 0 0 0 0 0 0 0 0 0 0
5 7 99 79 100 30 32 100 100 100 100 100 100 100 100 100 100 100 100 100 100 100 100 100 100 64 20 18 27 5 0 0 0 0 0 0 2 0 0 0 0 0 0
88 97 91 88 97 100 100 100 97 66 88 98 100 100 100 84 98 100 100 88 100 100 100 100 89 46 7 5 0 2 4 4 4 5 5 0 5 5 14 0 0 0 0
100 100 100 100 100 100 72 7 5 12 15 44 63 100 100 100 100 100 100 100 100 95 48 27 14 5 5 8 36 29 5 19 21 33 5 5 4 9 1 0 1 0 0
100 100 100 100 100 76 86 52 79 94 50 61 74 96 100 100 100 95 50 79 82 10 5 28 5 36 89 69 97 100 88 25 65 5 3 4 5 5 2 4 0 2 0
98 75 79 98 100 79 75 89 96 9 55 91 94 100 100 100 90 52 86 35 5 8 8 71 92 82 94 100 100 70 75 63 5 0 5 5 4 5 5 5 5 4 1
89 93 99 52 10 26 26 17 72 64 100 96 100 100 100 100 36 17 55 8 5 70 90 80 82 48 24 97 100 76 23 29 5 5 5 5 5 4 4 5 5 5 1

GFSSE_prec_cloud_066.txt.gz
Cloud_Cover
76 69 67 100 100 100 100 70 37 5 7 5 5 5 5 5 67 42 76 5 5 5 2 5 5 2 3 0 0 0 0 0 0 0 0 0 0 0 0 0 0 0 0
79 35 5 66 100 100 100 100 73 5 18 5 5 4 5 5 5 5 11 74 71 29 5 64 3 5 3 1 0 0 0 0 0 0 0 0 0 0 0 0 0 1 0
97 89 5 21 100 77 30 8 6 45 31 5 5 5 5 13 99 7 13 31 15 38 98 29 10 1 3 1 0 0 0 0 0 0 0 0 0 0 0 0 0 0 0
80 90 13 12 60 10 5 12 8 6 5 5 5 5 5 5 68 78 85 100 19 8 12 25 30 7 76 5 5 7 3 3 0 0 0 0 0 0 0 0 0 0 0
64 67 21 0 0 4 5 5 5 5 5 5 5 5 5 5 74 98 98 80 83 85 73 6 5 5 5 9 12 5 5 10 9 5 5 1 0 0 0 0 0 0 0
100 88 40 5 4 5 5 5 21 10 5 5 5 5 43 100 100 100 80 99 99 100 54 32 6 63 77 92 7 6 5 5 5 19 5 59 2 0 0 0 0 0 0
65 100 100 68 28 31 83 10 96 100 76 5 6 73 100 100 100 100 100 100 100 98 92 51 18 55 80 70 16 35 6 7 8 5 2 16 0 0 0 0 0 0 0
100 100 100 100 100 100 100 100 100 100 100 97 100 100 100 100 100 100 100 100 100 100 100 81 92 80 47 8 95 34 15 37 5 0 0 5 3 0 0 0 1 0 0
100 100 100 100 100 100 100 100 100 100 100 100 100 100 100 100 100 100 100 100 100 100 100 100 86 80 47 82 84 90 8 5 3 0 0 2 0 0 0 0 0 0 0
100 100 100 100 100 100 100 100 100 100 100 100 100 100 100 100 100 100 100 100 100 100 100 100 100 96 6 6 92 6 3 5 1 3 0 4 0 43 4 0 0 0 0
100 100 100 100 100 100 100 97 100 100 100 100 100 100 100 100 100 100 100 100 100 100 100 99 88 94 23 23 79 5 72 100 77 74 5 5 5 5 3 0 1 1 1
100 100 100 100 100 100 100 100 100 100 100 100 100 100 100 100 100 100 100 100 100 100 100 100 96 100 99 58 83 72 62 90 89 100 28 16 5 3 7 0 1 0 0
100 100 100 100 100 100 100 100 100 100 100 100 100 100 100 100 100 100 100 100 100 100 100 100 99 100 100 100 100 100 100 70 66 5 5 8 4 2 20 8 4 0 0
100 100 100 100 100 100 100 100 100 100 100 100 100 100 100 100 100 100 100 100 100 100 100 100 100 100 100 100 100 90 36 33 5 10 36 5 0 0 11 10 6 1 0
100 100 100 100 100 100 100 100 100 100 100 100 100 100 100 99 100 100 100 100 100 100 100 100 100 100 100 67 83 33 99 92 55 52 5 1 5 2 25 6 5 1 0
100 100 100 100 100 100 100 100 100 100 100 100 100 100 96 98 100 100 100 100 100 100 100 100 100 68 41 34 99 53 100 95 5 33 14 3 5 0 5 3 0 0 0
100 100 100 100 100 100 100 100 100 100 100 100 100 100 100 100 100 100 99 100 100 100 42 41 60 75 78 100 100 88 54 8 26 5 5 5 3 5 2 0 0 0 0
100 100 100 100 100 100 100 100 100 100 100 100 100 100 100 100 100 100 100 100 99 79 54 97 100 100 100 100 44 19 9 10 17 5 5 5 5 0 0 0 0 0 0
100 100 100 100 100 100 100 100 100 100 100 100 100 100 100 100 90 96 98 94 98 100 99 99 61 61 88 88 86 100 47 87 11 5 16 4 0 0 0 0 0 0 0
100 64 100 100 100 100 100 100 53 96 100 100 100 95 100 100 100 100 100 98 74 15 94 100 100 100 100 100 100 99 55 5 5 10 0 0 0 4 0 0 0 0 0
15 32 98 100 100 100 100 100 100 100 100 100 100 100 100 100 100 100 100 86 100 100 100 100 92 100 100 73 100 46 5 5 2 1 2 0 0 1 0 0 0 0 0
100 94 14 58 90 99 100 100 100 100 100 100 100 100 100 99 98 76 68 66 95 89 86 83 71 40 5 5 8 5 21 40 7 5 5 2 5 2 1 5 5 0 4
51 99 99 37 98 100 100 100 100 100 60 61 90 100 100 100 99 47 91 65 8 5 5 4 5 6 5 5 52 19 100 100 73 5 4 2 4 5 5 5 5 5 5
100 100 100 100 100 100 100 100 100 100 80 78 98 91 100 100 84 98 82 91 100 5 5 5 39 5 10 93 13 23 88 100 73 5 5 2 5 5 5 5 5 5 5
100 100 90 100 100 53 100 100 100 43 13 62 58 100 100 100 95 98 100 100 100 64 5 6 22 74 21 84 96 91 60 19 5 5 5 5 3 5 5 5 5 5 5
84 46 87 6 11 81 42 33 26 9 55 89 89 100 100 100 100 100 100 100 100 100 84 86 81 84 99 100 100 95 35 74 5 5 5 5 1 0 5 5 5 5 5

GFSSE_prec_cloud_069.txt.gz
Cloud_Cover
47 99 62 100 100 100 100 100 100 98 48 100 67 30 15 38 34 6 5 5 3 1 22 34 5 5 5 5 1 0 0 0 0 0 1 0 0 0 0 0 0 0 0
81 93 100 83 48 97 100 100 100 100 100 100 62 6 5 5 5 5 5 4 2 1 15 0 4 5 6 2 0 0 0 0 0 0 0 0 0 0 0 0 0 0 0
53 94 100 100 100 100 57 8 52 95 82 37 11 5 5 5 5 5 5 5 5 5 4 80 93 3 0 2 1 5 4 4 5 0 0 0 0 0 0 0 14 12 0
100 86 42 100 100 16 0 10 13 74 4 5 5 5 5 2 4 5 5 5 5 5 57 100 48 5 1 5 5 5 4 0 0 14 24 0 1 3 5 0 0 12 0
100 77 20 100 100 21 4 56 89 30 5 5 5 5 5 5 5 5 11 11 73 13 100 100 93 12 5 5 5 9 8 4 3 1 5 4 2 3 2 0 0 0 0
100 100 32 89 100 27 86 54 11 5 5 5 6 5 72 5 5 5 97 100 100 100 100 91 100 25 99 9 5 3 0 0 5 5 25 52 1 5 0 0 0 0 0
100 100 100 57 100 90 66 42 5 64 100 100 100 100 100 91 100 100 90 82 100 100 100 100 100 98 57 26 74 4 5 2 7 6 68 7 3 0 0 0 0 0 0
100 100 100 100 100 97 84 11 33 95 100 100 100 100 92 98 100 100 100 100 100 100 100 100 100 99 100 90 66 5 5 5 8 6 28 4 2 0 0 0 0 0 0
100 100 100 100 100 100 100 100 100 100 100 100 96 100 87 100 100 100 100 100 100 100 100 100 100 99 100 100 71 4 4 0 1 5 20 4 0 1 31 5 0 0 0
100 100 100 100 100 100 100 100 100 100 100 100 100 100 100 100 100 100 100 100 100 100 100 100 100 100 100 100 22 7 5 4 4 5 5 70 29 25 4 2 4 3 0
100 100 100 100 100 100 100 100 100 100 100 100 100 100 100 100 100 100 100 100 100 100 100 100 100 100 100 100 100 43 15 58 98 57 44 98 44 48 5 4 15 6 5
100 100 100 100 100 100 100 100 100 100 100 100 100 100 100 100 100 100 100 100 100 100 100 100 100 100 91 100 100 44 85 88 68 100 100 100 100 18 6 6 5 5 5
100 100 100 100 100 100 100 100 100 100 100 100 100 100 100 100 100 100 100 100 100 100 100 100 100 100 100 100 100 84 100 100 100 100 100 8 8 16 91 39 11 1 0
100 100 100 100 100 100 100 100 100 100 100 100 100 100 100 100 100 99 100 100 100 100 100 100 100 100 100 100 100 100 100 100 95 98 75 18 100 100 100 30 13 4 0
100 100 100 100 100 100 100 100 100 100 100 100 100 100 100 100 100 100 100 94 100 100 100 100 100 97 100 100 100 100 100 81 71 50 100 100 100 37 15 4 6 5 0
100 100 100 100 100 100 100 100 100 100 100 100 100 100 100 100 100 100 100 100 100 96 100 95 100 100 100 100 100 99 82 39 100 100 100 100 87 20 10 86 5 0 0
100 100 100 100 100 100 100 100 100 100 100 100 100 100 100 100 100 100 100 100 100 100 100 100 100 100 100 100 99 95 100 100 100 100 83 98 39 7 76 1 4 0 0
100 100 100 100 100 100 100 100 100 100 100 100 100 100 100 100 100 100 100 100 100 96 100 100 100 100 100 100 98 100 70 55 63 90 43 92 6 37 5 5 0 0 0
94 100 100 99 100 90 100 100 100 99 100 100 100 100 100 100 100 100 100 100 96 61 100 100 100 79 69 31 18 51 100 85 42 29 12 6 3 2 0 0 0 0 0
99 99 100 100 100 100 100 100 100 100 100 100 100 100 100 100 100 100 98 97 100 100 100 100 100 78 97 98 91 100 100 100 68 11 5 5 5 0 0 0 0 0 0
100 100 100 100 100 100 100 100 100 100 100 100 100 100 100 100 100 100 100 100 100 100 100 100 100 97 84 64 72 11 21 6 4 4 5 5 0 0 0 0 1 2 0
95 90 59 100 100 100 100 100 100 100 100 100 100 100 100 100 100 100 100 100 99 86 39 46 40 61 20 16 5 5 46 38 15 10 4 4 5 0 0 5 5 5 4
96 100 99 94 100 100 100 100 100 100 100 82 97 100 100 100 100 80 29 38 36 62 53 46 32 5 5 5 5 5 5 5 5 5 5 0 0 0 5 5 5 5 5
23 27 86 100 91 54 53 36 49 90 96 100 100 100 100 100 74 97 100 83 7 93 81 100 95 56 5 24 49 21 5 5 54 5 5 4 5 5 5 5 5 5 5
47 95 15 100 89 87 92 35 85 100 100 100 100 100 100 94 59 95 91 93 42 100 100 100 100 17 100 100 100 94 100 57 44 25 66 6 5 5 7 64 5 5 5
24 92 100 94 80 90 44 76 100 98 85 79 85 90 100 100 100 100 96 100 100 100 100 100 100 100 98 100 100 91 100 72 96 93 34 5 5 5 5 5 5 5 5

GFSSE_prec_cloud_072.txt.gz
Cloud_Cover
77 100 100 42 13 20 21 72 33 58 6 59 79 93 100 99 99 55 87 53 5 13 62 5 1 5 3 3 18 45 9 0 0 0 0 0 0 0 0 0 0 0 1
100 100 100 100 99 44 19 69 100 100 99 94 99 99 99 100 81 96 7 5 5 5 5 0 0 2 5 5 31 5 2 0 0 0 0 0 0 0 6 5 0 0 0
100 100 100 100 100 87 10 0 76 100 81 18 30 98 100 100 84 5 5 5 5 42 0 0 5 5 1 59 96 1 2 0 3 17 0 0 0 0 0 17 49 3 100
100 100 100 100 100 97 98 37 52 15 21 26 9 4 4 2 5 5 4 5 5 5 0 3 3 40 29 93 52 4 5 5 62 51 0 0 0 0 0 0 0 14 4
100 100 100 100 100 100 52 99 76 5 5 5 5 5 5 5 5 5 4 5 5 5 5 5 38 32 100 87 20 5 3 5 6 0 0 0 0 0 0 0 0 0 0
100 100 100 100 100 8 5 25 52 5 5 5 5 5 5 72 98 84 75 5 5 5 6 84 93 100 100 98 71 67 7 3 5 4 0 0 0 5 2 0 0 0 0
100 100 100 100 100 86 67 100 79 33 5 11 26 5 66 92 93 76 65 58 25 33 100 100 100 100 100 100 92 11 14 4 4 2 2 5 1 3 0 0 0 0 0
100 100 100 100 100 100 100 100 100 11 19 100 20 53 73 80 60 73 69 90 92 99 100 100 100 100 100 67 100 95 23 11 66 4 4 2 0 0 0 0 0 3 3
100 100 100 100 100 100 100 100 79 77 96 94 93 95 77 67 98 100 100 100 100 100 100 100 100 99 100 94 100 68 73 62 64 5 4 1 0 3 3 1 10 4 10
100 100 100 100 100 100 100 100 100 100 100 100 98 92 100 100 100 100 100 100 100 100 100 100 92 100 100 100 100 99 100 23 4 26 9 3 5 80 5 21 100 72 18
100 100 100 100 100 100 100 100 100 100 100 100 100 100 100 100 100 100 100 100 100 100 100 100 100 100 100 100 100 100 88 34 70 100 100 98 95 9 94 100 100 100 48
100 100 100 100 100 100 100 100 100 100 100 100 100 100 100 100 100 100 100 100 100 100 100 100 100 100 100 100 100 100 100 100 100 100 100 100 63 95 100 100 99 89 97
100 100 100 100 100 100 100 100 100 100 100 100 100 100 100 100 100 100 100 100 100 100 100 95 97 100 100 100 100 100 100 100 100 93 100 96 100 100 94 72 96 100 100
100 100 100 100 100 100 100 100 100 100 100 100 100 100 100 100 100 100 100 100 100 100 70 92 50 70 100 100 100 100 99 98 85 65 100 100 100 86 100 100 100 100 100
100 100 100 100 100 100 100 100 100 100 100 100 100 100 100 100 100 100 100 100 100 96 94 73 97 93 94 100 100 100 100 75 94 88 75 98 100 100 100 100 96 52 5
100 100 100 100 100 100 100 100 100 100 100 100 100 100 100 100 100 100 100 100 100 100 100 100 6 5 48 100 100 100 63 99 100 100 100 100 100 99 20 5 5 7 26
100 100 100 100 100 100 100 100 100 100 100 100 100 100 100 100 100 100 100 100 100 100 100 77 40 98 100 100 100 96 97 100 100 100 100 100 16 30 90 21 5 5 6
100 100 100 100 100 100 100 100 100 100 97 100 100 100 100 100 100 100 100 100 100 100 100 100 100 99 99 92 84 100 100 100 100 48 41 68 98 80 82 16 5 5 5
100 100 100 100 100 100 100 100 100 100 100 100 100 100 100 100 100 100 100 100 100 100 95 100 100 100 100 99 100 100 100 100 100 94 97 69 72 41 44 5 5 5 4
100 100 100 100 100 100 100 100 100 100 100 100 100 100 100 100 100 100 100 100 100 100 100 100 100 100 100 100 100 100 100 100 85 78 52 19 5 4 4 3 4 0 0
85 100 100 100 100 100 100 100 100 100 100 100 100 100 100 100 100 100 66 90 100 100 100 100 100 100 100 94 99 95 71 94 38 17 5 5 5 3 0 0 0 0 0
89 87 94 100 100 100 97 100 100 100 99 100 100 100 100 100 100 100 100 100 100 100 100 100 95 97 86 38 63 79 71 64 70 41 54 33 5 4 4 3 5 5 5
79 98 100 100 100 97 72 5 65 100 100 100 100 100 100 100 100 100 100 96 45 96 82 40 12 72 87 84 63 7 6 13 49 29 6 18 35 13 9 48 59 7 5
100 100 22 32 33 77 100 98 10 100 100 100 100 100 100 100 100 91 96 89 92 95 100 64 93 97 80 44 100 100 100 100 100 100 87 6 5 6 14 9 87 99 2
100 100 100 92 70 87 84 100 77 70 94 87 61 100 95 72 100 100 81 98 96 100 100 100 100 100 100 36 99 100 100 100 100 100 100 100 48 20 25 6 5 5 5
100 100 100 22 5 99 100 100 100 100 100 100 100 51 100 97 99 100 100 100 100 95 93 97 100 100 100 98 100 100 100 100 100 100 100 96 78 99 100 100 93 22 0

GFSSE_prec_cloud_075.txt.gz
Cloud_Cover
100 74 94 80 100 100 100 100 99 92 97 92 100 100 93 9 9 5 49 24 73 21 50 6 3 5 4 3 1 0 0 3 4 3 0 0 0 5 5 0 0 0 0
100 100 100 100 100 100 100 100 5 11 75 46 80 45 68 100 99 79 100 85 100 48 18 5 1 0 0 0 0 2 0 11 51 10 0 0 0 54 54 28 6 68 6
100 100 100 100 100 100 100 100 100 8 1 4 9 89 87 100 100 100 96 86 100 24 4 2 3 0 0 0 0 4 3 14 66 0 3 0 0 0 1 98 100 100 100
100 100 100 100 100 100 100 26 96 100 98 4 58 91 98 71 41 5 32 14 5 4 5 4 0 0 0 0 1 5 5 5 5 0 5 0 2 0 0 0 0 10 100
100 100 100 100 100 100 86 100 100 100 100 92 69 100 74 100 100 12 3 5 5 18 4 5 4 5 5 9 52 65 71 65 22 1 5 2 1 0 0 0 0 4 83
100 100 100 100 100 100 100 100 100 100 100 96 100 100 100 36 5 5 5 5 5 4 76 6 5 43 89 92 76 100 100 64 100 11 3 2 5 2 0 0 0 0 3
100 100 100 100 100 100 100 95 100 87 39 100 100 84 50 76 5 5 5 5 5 5 5 12 44 100 100 96 48 67 100 41 27 26 16 38 2 0 0 0 0 0 0
100 98 100 100 100 100 100 100 100 100 53 91 76 89 5 5 5 5 5 5 25 76 98 100 100 100 100 78 42 9 100 100 85 97 65 6 2 4 0 0 0 0 0
100 100 100 100 100 100 100 100 100 100 84 100 100 17 5 6 6 7 11 73 99 100 100 100 100 100 52 51 64 6 99 100 100 10 32 19 5 1 4 1 4 54 59
100 100 100 100 100 100 100 100 100 100 99 38 100 100 100 100 100 100 47 100 100 100 100 100 100 99 77 5 60 100 100 97 36 6 7 7 11 94 51 100 100 67 43
100 100 100 100 100 100 100 100 100 100 100 100 100 100 100 100 100 100 100 100 100 100 100 100 100 99 100 100 100 80 100 88 100 100 100 100 100 100 97 98 92 100 100
100 100 100 100 100 100 100 100 100 100 100 100 100 100 100 100 100 100 100 100 100 100 100 100 100 79 83 92 100 100 100 100 100 100 100 93 65 44 44 100 100 97 100
100 100 100 100 100 100 100 100 100 100 100 100 93 100 100 100 100 100 100 100 96 84 100 100 100 93 34 29 60 100 100 100 100 100 100 100 100 83 99 100 100 100 93
100 100 100 100 100 100 100 100 100 100 100 100 100 100 98 100 100 100 100 100 100 98 99 91 98 94 53 76 58 95 86 78 20 59 30 100 100 100 98 34 11 17 100
100 100 100 100 100 100 100 100 100 100 100 100 100 100 62 100 99 100 100 100 100 75 86 55 6 5 27 8 5 9 6 65 23 55 94 92 100 96 43 95 100 100 72
100 100 100 100 100 100 100 100 100 100 100 100 100 100 100 100 100 100 100 100 100 100 97 62 92 66 74 43 70 90 83 99 100 69 20 75 100 100 100 100 100 13 9
100 100 100 100 100 100 100 100 100 100 100 100 100 100 100 93 100 100 100 100 100 100 95 46 89 82 98 100 100 100 64 50 20 51 100 100 100 100 100 64 90 7 5
100 100 100 100 100 100 100 100 100 100 100 100 100 100 100 100 100 100 100 100 100 100 100 100 100 100 100 100 99 100 96 100 100 100 100 100 100 100 76 91 22 5 5
100 100 100 100 100 100 100 100 100 100 100 100 75 100 100 100 100 100 100 100 100 100 100 100 100 100 100 100 100 100 100 100 100 100 100 100 100 89 5 5 5 5 4
100 100 100 100 100 100 100 100 100 90 100 100 100 100 97 100 100 100 100 100 100 100 100 100 100 100 100 100 100 100 100 100 100 100 97 66 47 76 59 24 30 5 5
89 100 100 100 100 100 100 100 100 100 100 100 100 100 100 97 100 100 100 100 98 92 100 100 100 100 100 100 100 100 100 100 88 36 15 5 7 12 5 36 21 5 2
67 100 100 100 100 100 100 100 100 82 77 100 100 100 100 100 100 100 100 100 90 100 100 100 100 100 100 100 100 100 94 96 100 100 100 100 98 98 100 68 6 24 57
19 100 100 100 100 100 100 100 100 100 96 99 100 100 100 100 100 100 100 100 100 100 100 100 100 97 99 98 97 96 100 75 26 88 100 100 100 93 100 100 100 93 88
4 100 100 100 100 100 100 100 100 100 100 96 100 100 100 100 100 100 100 100 100 100 100 100 86 100 99 89 100 94 34 61 49 38 57 39 14 99 100 100 100 100 94
99 97 56 96 100 100 100 100 87 30 55 96 98 100 100 90 100 100 59 99 100 100 100 100 100 100 100 100 100 100 100 84 90 10 99 100 88 92 42 86 23 5 5
97 73 90 48 61 92 30 12 1 5 88 52 81 5 43 64 88 100 97 82 96 92 97 67 100 95 87 100 100 100 100 100 100 99 82 100 100 94 45 17 23 5 5

GFSSE_prec_cloud_078.txt.gz
Cloud_Cover
91 18 79 40 7 68 69 95 100 100 100 82 81 100 74 96 88 31 94 97 6 21 5 69 5 44 67 5 3 0 0 0 0 0 89 96 76 11 0 0 0 62 100
75 1 36 77 99 99 100 100 100 100 100 94 59 88 5 66 23 5 4 98 40 76 76 93 100 11 34 1 0 0 0 0 0 0 0 1 26 53 27 21 89 24 5
9 8 95 100 100 100 100 100 100 100 100 100 100 29 13 16 27 8 57 10 88 53 28 74 60 40 5 1 0 1 0 0 0 5 5 2 1 0 5 96 100 100 100
87 93 37 100 100 100 100 100 100 100 100 100 100 100 100 100 99 99 96 78 82 100 100 100 100 68 88 99 0 0 4 3 5 35 28 5 0 0 0 4 100 86 70
85 39 54 100 100 100 100 100 100 100 100 100 100 99 100 99 90 92 100 100 100 45 100 100 100 21 100 8 5 5 5 14 36 33 47 16 5 5 3 2 13 95 100
20 27 48 100 100 100 100 100 100 100 100 65 5 30 14 64 82 93 73 90 100 99 90 28 76 66 27 96 62 42 91 90 69 71 82 6 5 5 5 5 0 26 44
100 100 100 100 100 100 100 100 100 100 100 100 51 5 51 94 100 59 85 32 57 23 5 16 5 5 89 53 100 10 94 34 78 50 78 89 86 8 86 5 8 0 0
100 100 100 100 86 100 100 100 100 100 100 100 30 22 68 98 100 83 5 5 5 5 5 5 36 53 5 100 100 4 5 96 100 73 40 94 52 26 6 3 21 4 2
100 100 100 100 100 100 100 94 100 100 100 100 88 58 100 99 75 5 32 5 41 49 96 88 48 23 5 100 100 5 5 27 42 74 92 98 99 36 4 4 50 6 38
100 100 100 100 100 100 100 100 100 100 100 100 100 99 100 100 100 61 7 100 100 100 100 100 96 88 35 100 100 5 5 28 95 100 98 100 100 54 99 98 100 100 100
100 100 100 100 100 100 100 100 100 100 100 100 100 100 100 100 100 65 100 98 100 100 100 100 100 37 13 89 88 99 100 100 100 100 100 100 90 100 97 100 100 99 100
100 100 100 100 100 100 100 100 100 100 100 100 100 100 100 100 100 49 100 100 100 100 99 98 84 100 85 99 100 78 74 100 100 100 100 86 63 69 100 100 100 100 100
100 100 100 100 100 100 100 100 100 100 100 100 100 100 100 100 100 97 100 100 100 100 66 33 26 5 59 100 99 38 8 16 7 5 5 5 5 4 3 5 26 82 8
100 100 100 100 100 100 100 100 100 100 100 100 100 100 100 100 29 99 96 88 100 100 23 66 78 11 45 82 14 34 5 5 5 5 1 5 5 31 26 5 5 7 26
100 100 100 100 100 100 100 100 100 100 100 100 100 100 100 100 88 92 100 84 100 99 56 6 5 5 11 18 12 47 20 5 5 5 5 35 37 17 7 27 88 99 95
100 100 100 100 100 100 100 100 100 100 100 100 100 100 100 100 94 78 100 100 100 97 98 37 92 100 77 69 46 100 58 5 3 72 70 25 86 37 96 100 100 100 100
100 100 100 100 100 100 100 100 100 100 100 100 100 100 100 100 100 97 100 89 98 100 80 38 20 52 96 95 100 92 98 20 92 57 60 84 100 100 100 100 100 100 100
100 100 100 100 100 100 100 100 100 100 100 100 100 100 100 100 100 100 99 99 100 96 66 82 100 86 86 100 73 100 100 100 100 94 100 100 100 100 100 100 100 99 63
100 100 100 100 100 100 100 100 100 100 100 100 100 100 100 100 100 100 100 100 100 100 93 97 100 100 100 96 100 100 100 100 100 100 100 100 100 100 100 80 33 28 35
100 100 100 100 100 100 100 100 100 100 100 100 100 100 100 100 87 86 77 100 100 94 98 67 91 99 76 77 100 96 100 100 100 100 100 100 100 100 100 100 100 100 100
100 100 100 100 100 100 100 100 100 100 100 100 100 100 100 100 100 100 97 62 83 98 100 100 100 100 100 90 100 83 100 100 100 100 100 100 85 98 100 100 100 100 97
100 92 100 100 100 100 100 98 100 100 100 100 100 100 100 100 100 100 100 100 100 100 100 66 35 83 38 41 100 100 100 100 100 89 100 75 59 58 80 100 90 100 53
100 90 100 100 100 100 100 100 70 84 100 100 99 100 100 100 100 100 94 52 98 96 43 51 71 6 62 100 97 100 100 99 100 100 100 82 23 46 94 100 100 82 99
79 66 91 100 100 100 100 100 99 94 58 62 100 100 100 100 100 98 55 61 100 97 100 100 74 62 98 100 100 100 100 100 99 100 100 100 95 64 33 94 100 100 100
100 75 95 47 100 100 100 100 100 100 100 100 82 72 41 38 99 100 98 96 99 96 64 88 45 31 84 94 100 97 100 100 100 100 100 100 97 100 100 100 100 12 6
44 100 100 57 77 70 96 100 100 100 100 100 100 100 100 87 100 100 95 97 100 87 66 29 46 100 100 99 89 100 100 100 100 100 100 100 100 100 100 100 55 38 98

GFSSE_prec_cloud_081.txt.gz
Cloud_Cover
100 100 100 6 16 5 77 1 71 100 100 100 97 99 100 89 100 100 61 47 93 98 86 100 100 97 78 51 94 48 54 1 0 81 74 31 13 1 1 5 94 100 100
100 100 100 68 6 4 8 31 19 100 100 96 100 100 100 100 92 100 100 100 32 10 75 86 100 100 100 77 100 23 42 5 0 3 6 37 100 98 99 96 27 100 96
100 38 11 25 100 100 5 13 100 100 100 100 100 99 94 13 7 4 21 17 99 100 56 100 100 91 98 100 76 5 5 5 0 0 0 1 4 91 100 100 100 100 100
98 61 36 24 43 12 3 84 100 100 97 100 100 100 100 100 81 53 74 22 36 17 94 95 97 100 97 100 100 5 5 7 0 0 5 13 33 98 100 100 97 54 99
83 80 88 54 100 96 97 100 100 100 100 100 100 100 71 100 100 100 96 98 100 91 66 100 100 100 99 100 100 5 5 4 5 5 43 79 15 15 88 93 100 100 100
1 5 83 76 92 55 100 100 100 100 100 100 100 94 94 26 55 81 80 37 100 100 100 100 100 100 26 79 6 5 5 5 92 67 73 20 5 5 5 6 5 6 90
65 60 100 100 100 100 100 97 100 100 100 100 100 100 97 72 92 5 5 8 94 70 61 85 85 100 55 4 4 3 5 92 37 18 14 63 25 67 100 83 5 27 71
100 100 100 100 100 100 100 100 100 100 100 100 100 100 100 100 91 5 16 99 71 5 98 81 6 5 0 0 5 5 32 5 6 5 5 54 74 5 49 16 5 4 5
100 100 100 100 100 100 100 100 100 100 100 100 100 100 100 100 88 90 100 100 28 14 11 36 82 27 19 5 30 6 62 55 5 18 11 13 6 78 58 90 70 38 9
100 100 100 100 100 100 100 100 100 100 100 100 100 94 100 100 62 100 5 5 5 10 5 59 100 100 80 5 5 5 5 5 5 54 23 79 85 31 98 100 94 95 100
100 100 100 100 100 100 100 100 100 100 100 100 100 100 100 100 98 100 24 9 47 35 6 77 100 100 100 33 97 25 5 5 42 5 31 94 100 100 99 100 40 5 1
100 100 100 100 100 100 100 100 100 100 100 100 100 100 100 100 98 93 92 100 98 100 71 98 95 60 100 95 78 36 53 94 84 52 25 36 18 5 5 5 5 4 0
100 100 87 100 100 100 100 100 100 100 100 100 100 100 100 100 100 89 100 96 88 83 56 42 98 10 5 5 5 5 5 5 5 5 5 5 5 5 0 5 1 0 4
100 100 100 100 100 100 100 100 100 100 100 100 100 100 100 100 100 72 76 59 56 21 69 71 80 100 57 5 5 4 5 4 4 5 5 5 36 7 5 4 5 6 6
100 100 100 100 100 100 100 100 100 100 100 100 100 100 100 100 100 100 100 86 97 85 80 75 66 100 99 10 5 57 87 27 5 6 48 86 12 5 6 5 5 5 33
100 100 100 100 100 100 100 100 100 100 100 100 100 100 100 100 100 100 100 100 100 80 93 80 99 100 100 98 74 16 61 67 28 100 27 15 9 5 5 5 5 55 32
100 100 100 100 100 100 100 100 100 100 100 100 100 100 100 100 100 100 100 97 100 80 7 46 63 100 83 100 94 98 90 88 92 100 90 98 56 12 71 44 14 5 94
100 100 100 100 100 100 100 100 100 100 100 100 100 100 100 100 100 100 100 100 100 90 99 95 90 100 94 100 100 100 100 100 100 100 100 100 100 100 81 26 24 19 100
100 100 100 100 100 100 100 100 100 100 100 100 100 100 100 100 100 100 100 100 100 100 99 100 96 96 99 100 100 100 100 100 99 97 100 100 100 100 78 76 100 100 100
100 100 100 100 100 100 100 100 100 100 100 100 100 100 100 100 100 100 100 100 100 98 100 97 85 93 89 98 100 100 100 100 100 100 81 100 91 27 62 53 96 97 100
100 100 100 100 100 100 100 100 100 100 100 100 100 100 100 100 100 100 100 100 54 97 100 100 100 100 100 100 100 100 100 100 100 100 100 100 100 100 98 80 16 99 100
100 100 100 100 100 100 100 100 100 100 100 100 100 100 100 100 100 100 100 100 100 100 100 100 100 100 100 97 100 100 100 100 100 100 100 100 77 24 11 56 92 72 77
100 100 100 100 100 100 100 100 100 100 100 100 100 100 100 100 100 100 100 100 100 100 100 100 100 100 100 97 95 100 100 100 100 78 71 97 65 82 93 97 100 100 95
100 100 100 100 100 100 100 100 100 96 100 100 100 100 100 100 100 100 100 98 100 91 100 100 99 100 99 73 100 99 100 100 100 97 100 100 100 98 87 100 79 95 37
100 100 40 96 98 100 100 100 100 100 100 100 100 99 100 100 100 100 100 100 96 71 49 92 31 95 69 97 100 100 100 100 100 100 100 99 100 100 100 90 100 100 100
98 100 100 97 98 100 100 100 100 100 100 100 94 61 34 55 91 88 96 64 66 54 82 89 97 100 100 88 100 100 100 97 93 100 100 100 100 100 100 100 100 100 100

GFSSE_prec_cloud_084.txt.gz
Cloud_Cover
35 32 91 6 6 6 92 96 84 4 5 78 100 100 100 100 100 100 100 100 77 100 100 100 88 100 100 100 95 56 100 100 100 55 18 13 8 57 100 100 100 100 38
43 100 80 22 100 100 100 62 51 16 94 54 100 100 100 65 100 100 100 51 9 52 97 97 100 100 92 100 100 48 95 100 100 79 86 27 67 40 1 0 98 100 100
100 96 96 100 78 25 8 47 29 16 75 100 100 100 100 100 89 72 72 91 78 93 82 91 100 100 100 89 100 100 90 100 100 74 5 98 100 71 13 99 98 99 98
24 99 44 81 76 22 97 92 7 4 9 100 99 100 100 100 100 100 100 94 5 76 100 46 76 6 21 97 100 100 100 100 87 7 16 96 99 100 100 77 26 47 92
64 98 99 37 21 75 33 5 5 16 23 97 100 100 100 100 100 100 100 100 100 100 100 99 100 100 100 57 99 100 94 85 4 2 1 19 100 100 100 94 100 100 83
100 100 100 66 78 23 93 58 15 1 100 100 100 100 100 100 100 100 100 100 100 63 90 100 100 82 100 76 100 5 5 5 5 0 5 3 3 5 5 16 7 7 44
100 100 100 100 100 74 97 77 100 100 100 100 100 100 98 100 100 100 100 92 100 10 5 91 86 91 1 5 17 1 3 0 5 5 5 1 2 5 5 5 5 5 6
100 100 100 100 100 100 99 100 100 100 100 100 100 100 96 100 100 100 100 90 58 6 66 9 3 5 5 5 5 5 5 5 5 5 5 5 12 5 5 5 5 5 5
100 72 100 100 100 100 100 100 100 100 100 100 100 100 100 100 100 100 87 11 5 22 23 5 5 5 5 99 95 8 19 5 10 5 5 5 5 5 46 87 5 5 5
100 100 100 100 100 100 100 100 100 100 100 100 100 72 100 100 92 9 82 40 100 91 27 14 56 94 100 100 100 66 5 5 4 5 5 2 5 5 6 41 82 82 30
100 100 100 100 100 100 100 100 100 100 100 100 100 80 100 81 100 100 82 5 44 69 100 100 76 74 100 100 100 100 64 27 5 5 5 5 5 99 93 100 84 50 4
100 100 100 100 100 100 100 100 100 100 100 100 100 100 100 100 89 100 45 59 79 100 100 100 99 100 100 86 100 100 100 100 63 6 9 5 5 22 30 4 5 5 5
100 100 100 100 100 100 100 100 100 100 100 100 100 100 100 100 100 100 100 94 94 100 100 100 100 67 100 39 68 99 84 100 65 5 5 5 5 2 5 5 16 50 34
100 100 100 100 100 100 100 100 100 100 100 100 100 100 100 100 100 100 100 97 97 100 100 100 100 99 75 44 46 99 78 5 63 16 10 15 5 37 98 94 100 100 100
100 100 100 100 100 100 100 100 100 100 100 100 100 100 100 100 100 100 100 93 95 98 100 100 100 100 94 99 100 100 91 54 34 42 62 100 39 99 100 100 100 99 100
100 100 100 100 100 100 100 100 100 100 100 100 100 100 100 100 100 100 100 100 100 100 100 100 100 100 100 100 100 100 100 100 94 54 22 99 100 100 100 100 100 100 100
100 100 100 100 100 100 100 100 100 100 100 100 100 100 100 100 100 100 100 100 100 100 100 100 100 100 100 100 100 100 100 100 97 100 100 100 100 100 100 100 100 100 100
100 100 100 100 100 100 100 100 100 100 100 100 100 100 100 100 100 100 100 100 100 100 100 100 100 100 100 100 100 100 100 100 100 85 81 100 100 100 100 100 100 100 100
100 100 100 100 100 100 100 100 100 100 100 100 100 100 100 100 100 100 100 100 100 100 100 100 100 100 100 100 100 100 100 100 100 100 100 100 100 100 99 100 100 100 100
100 100 100 100 100 100 100 100 100 100 100 100 100 100 100 100 100 100 100 100 100 100 100 100 100 100 100 100 100 100 100 100 100 100 99 97 98 96 100 89 100 100 100
100 100 100 100 100 100 100 100 100 100 100 100 100 100 100 100 100 100 100 100 100 100 100 100 100 100 100 100 100 100 100 100 95 100 100 100 72 100 100 100 98 98 17
100 100 100 100 100 100 100 100 100 100 100 100 100 100 100 100 100 100 100 100 100 100 100 100 100 100 100 100 100 100 100 100 93 100 94 100 97 100 98 87 74 100 100
100 100 100 100 100 100 100 100 100 100 100 100 100 100 100 100 100 100 100 100 100 98 100 100 100 100 100 100 100 100 99 100 86 96 65 41 93 100 100 100 100 100 96
100 100 100 100 100 100 100 100 100 100 100 100 100 100 100 100 100 100 100 100 100 100 100 100 100 100 100 100 100 100 100 82 100 54 91 79 11 100 100 100 100 100 100
100 100 100 100 84 100 100 100 100 100 100 100 100 100 100 100 100 100 100 100 100 100 100 100 100 100 100 99 96 57 67 100 68 98 62 98 100 100 100 100 100 100 100
100 100 100 99 100 93 18 99 100 100 100 100 100 100 100 100 100 100 100 100 100 100 89 95 96 77 71 85 96 100 97 88 100 100 66 100 75 99 100 100 100 100 100

GFSSE_prec_cloud_087.txt.gz
Cloud_Cover
28 1 0 0 1 2 11 69 90 30 13 32 99 96 100 100 100 100 70 89 73 92 100 100 100 100 100 100 99 100 100 100 100 100 100 100 96 59 21 5 19 92 73
7 42 2 16 6 5 99 5 4 5 4 71 100 100 99 100 100 100 21 90 100 100 100 100 100 100 100 100 100 100 100 100 62 79 100 100 100 9 5 6 34 28 26
26 44 6 91 81 70 100 24 28 5 16 5 45 83 95 100 100 100 99 71 91 100 99 17 32 84 100 97 100 84 100 100 93 99 99 86 39 11 4 4 3 4 1
57 38 51 1 85 47 100 54 69 93 36 0 2 84 100 100 100 100 100 100 100 100 100 100 100 94 43 23 78 5 13 93 78 97 84 100 73 23 5 5 16 5 5
44 76 54 1 32 46 100 100 6 21 19 0 2 54 98 100 94 100 100 100 100 100 100 25 40 57 7 11 62 23 5 3 76 8 32 98 100 98 44 94 8 9 24
12 99 100 100 100 100 100 100 54 13 15 10 56 100 95 100 100 100 100 100 100 100 96 5 38 68 100 77 90 100 99 69 5 5 51 16 5 100 100 38 6 99 59
53 93 100 100 100 100 100 100 95 83 29 5 34 90 100 100 100 100 100 100 98 97 50 58 71 9 87 68 100 13 4 58 5 5 17 5 8 6 9 5 45 10 5
42 100 100 100 100 100 100 100 97 92 90 4 31 100 100 100 100 100 100 100 100 96 98 89 5 22 5 10 30 35 16 5 5 34 5 5 84 4 5 5 7 5 5
100 98 99 100 100 100 100 100 100 93 85 89 100 100 100 100 100 100 100 100 100 97 81 65 63 5 13 64 100 100 100 100 95 65 5 13 14 24 5 5 5 5 5
100 100 100 100 100 100 100 100 100 100 100 100 100 100 100 100 100 100 100 97 80 75 79 42 91 64 51 77 100 99 70 98 72 52 94 71 81 43 5 5 8 53 17
100 100 100 100 100 100 100 100 100 100 100 100 100 100 100 100 100 100 100 86 7 48 68 8 93 85 88 100 100 86 81 100 100 92 63 49 22 36 57 13 14 26 74
100 100 100 100 100 100 100 100 100 100 100 100 100 100 100 91 93 100 85 82 30 90 63 62 80 82 98 86 80 100 100 84 69 97 79 77 10 33 46 52 90 90 6
100 100 100 100 100 100 100 100 100 100 100 100 100 100 100 94 100 100 58 100 32 87 26 67 57 50 9 31 100 96 94 98 19 6 6 16 13 7 53 98 86 95 98
100 100 100 100 100 100 100 100 100 100 100 100 100 100 100 93 99 100 100 100 100 56 9 97 45 90 54 100 80 89 86 100 99 7 5 5 5 5 5 55 100 100 100
100 100 100 100 100 100 100 100 100 100 100 100 100 100 100 51 100 100 100 100 90 100 26 64 79 99 6 61 13 53 71 44 83 85 42 100 96 75 44 44 83 100 100
100 100 100 100 100 100 100 100 100 100 100 100 100 100 100 100 100 100 100 99 100 100 100 81 91 71 76 19 66 68 99 100 75 80 98 95 88 100 100 77 97 100 100
100 100 100 100 100 100 100 100 100 100 100 100 100 100 100 100 100 100 100 100 100 100 100 95 100 94 53 51 99 82 98 100 52 90 100 100 100 93 92 100 100 100 100
100 100 100 100 100 100 100 100 100 100 100 100 100 100 100 100 100 100 100 100 100 100 100 100 97 90 97 100 95 84 98 95 100 100 100 100 100 100 100 100 100 100 100
100 100 100 100 100 100 100 100 100 100 100 100 100 100 100 100 100 100 100 100 100 100 100 100 66 65 98 95 100 100 99 99 100 100 98 100 100 100 100 100 100 100 99
100 100 100 100 100 100 100 100 100 100 100 100 100 100 100 100 100 100 100 100 100 100 100 100 100 100 100 100 100 100 100 100 98 84 100 97 76 100 100 88 49 99 89
100 100 100 100 100 100 100 100 100 100 100 100 100 100 100 100 100 100 100 100 100 100 100 100 100 100 100 100 100 100 100 100 66 100 100 100 100 100 83 93 56 82 62
100 100 100 100 100 100 100 100 100 100 100 100 100 100 100 99 100 100 100 100 100 100 100 100 100 100 97 82 15 73 100 100 100 100 100 99 100 100 100 58 100 100 100
100 100 100 100 100 100 100 100 100 100 100 100 100 100 100 100 100 100 100 100 100 100 100 100 100 100 99 93 67 100 100 100 100 100 94 94 95 90 82 36 96 100 99
50 100 100 100 100 100 100 100 100 100 100 100 100 100 100 100 100 100 100 100 100 100 100 100 100 100 100 94 100 100 100 100 80 82 90 89 99 94 100 99 93 100 100
100 100 100 100 100 100 100 100 100 100 100 100 100 100 100 100 100 100 100 100 100 100 100 100 100 100 100 100 100 100 47 7 31 60 54 65 97 98 74 82 97 85 100
100 100 100 100 100 100 100 100 100 100 100 100 100 100 100 100 100 100 100 100 100 100 100 100 100 100 100 100 99 90 71 57 100 100 78 100 100 92 98 91 100 100 90

GFSSE_prec_cloud_093.txt.gz
Cloud_Cover
0 0 0 0 0 1 0 12 5 1 18 61 5 5 4 0 3 5 56 8 33 86 100 95 74 100 100 74 100 86 94 96 99 100 91 100 95 86 87 28 74 81 77
0 0 11 0 0 0 5 22 16 8 18 100 100 91 5 3 1 5 5 5 100 100 100 100 78 16 63 3 6 36 5 29 100 100 100 100 100 100 44 42 96 70 68
0 0 0 0 0 0 1 12 13 61 51 40 59 100 44 9 5 5 5 75 100 100 100 87 100 87 37 5 5 42 100 100 100 100 100 100 74 58 100 100 100 100 100
0 0 30 0 0 0 0 84 14 45 46 100 100 100 39 10 88 69 97 87 100 100 78 100 99 65 74 95 100 100 100 100 100 95 42 76 100 95 19 99 100 100 100
0 0 0 27 10 0 10 20 100 92 87 100 100 100 61 93 100 96 100 94 100 100 100 100 100 100 100 100 100 100 100 79 5 8 100 65 99 94 100 100 8 24 28
0 0 43 3 12 3 14 90 100 100 100 100 100 96 93 100 92 100 100 100 100 100 100 100 100 99 100 100 100 80 44 6 26 11 56 36 20 80 40 3 6 15 98
4 3 54 6 86 100 100 100 100 100 100 100 100 83 100 100 62 50 100 100 100 100 100 98 100 100 100 97 96 69 54 17 5 0 44 10 18 96 85 22 59 55 6
50 14 98 100 100 100 100 100 100 100 100 100 100 100 63 34 99 100 100 100 100 38 82 100 100 100 100 99 83 8 52 11 9 27 7 5 29 93 98 37 30 67 57
94 90 100 100 100 100 95 100 100 100 100 100 100 100 94 30 64 100 99 60 37 100 100 100 100 100 45 74 70 43 4 3 5 10 7 80 100 100 100 100 98 67 87
62 96 100 100 100 98 93 96 100 100 100 100 100 100 90 81 88 100 40 65 100 100 100 100 100 94 100 73 98 6 5 5 5 5 68 50 96 100 100 100 100 100 100
100 100 100 100 100 100 100 100 100 100 100 100 100 100 94 63 91 100 100 100 100 100 100 100 100 100 96 67 12 22 23 11 19 36 38 19 100 100 100 100 100 93 89
94 100 100 100 100 100 100 100 100 100 100 100 100 100 42 78 68 100 100 100 100 100 100 100 100 23 100 87 5 16 5 34 92 20 85 100 49 94 100 100 100 85 26
77 100 100 98 100 100 100 100 100 100 100 100 100 100 72 51 97 100 100 100 100 100 100 100 98 100 8 57 52 90 92 97 98 100 100 100 98 100 100 97 26 14 24
34 100 100 98 98 100 100 100 100 100 100 100 100 100 80 99 100 100 100 100 100 100 100 96 38 80 7 26 98 35 100 100 100 92 100 100 100 100 100 5 5 24 53
30 100 100 100 100 100 100 100 100 100 100 100 100 100 100 100 100 100 100 100 100 100 84 27 67 61 30 86 84 51 77 100 100 100 100 70 23 100 37 14 10 72 31
81 98 98 100 100 100 100 100 100 100 100 100 100 100 100 100 100 100 100 100 100 41 100 100 74 43 100 76 75 100 66 100 100 100 100 100 74 81 58 80 59 68 84
100 100 100 100 100 100 100 100 100 100 100 100 100 100 100 100 100 100 100 100 59 56 95 90 96 93 99 69 68 81 100 91 100 100 90 21 10 5 17 95 98 100 99
100 93 100 100 100 100 100 100 100 100 100 100 100 100 100 100 100 100 100 100 100 88 99 92 97 98 98 100 100 92 98 100 100 100 49 61 72 76 100 100 100 100 100
97 95 100 100 98 100 100 99 92 100 100 100 100 100 100 100 100 100 98 100 99 83 100 100 100 100 100 100 100 100 54 93 30 21 7 36 95 100 100 100 100 100 100
97 93 100 100 100 100 100 100 100 100 100 100 100 100 100 100 100 100 100 100 100 100 100 100 100 100 100 100 92 60 89 100 56 33 71 100 100 100 100 100 100 100 99
100 100 99 100 100 100 100 100 100 100 100 100 100 100 100 100 100 100 100 100 100 98 91 100 100 100 100 100 100 100 100 93 25 94 100 100 100 100 100 100 100 100 100
100 100 100 99 75 100 100 100 100 100 100 100 100 100 100 100 100 100 100 100 100 100 100 100 100 100 100 100 100 100 100 99 99 100 100 100 100 100 100 100 100 100 96
100 99 98 100 100 98 100 100 100 100 100 100 100 100 100 100 100 100 100 100 100 100 100 100 100 100 100 100 100 100 100 100 100 100 100 100 100 100 100 100 100 100 100
100 71 42 96 100 100 100 100 100 100 100 100 100 100 100 100 100 100 100 100 100 100 100 100 100 100 100 100 100 100 100 100 100 100 100 100 100 100 100 100 100 100 75
86 100 100 94 100 100 99 100 100 100 100 100 100 100 100 100 100 100 100 100 100 100 100 100 100 100 100 100 100 100 100 100 100 100 100 100 100 100 100 100 99 96 39
59 100 100 88 100 100 100 100 100 100 100 100 100 100 100 100 100 100 100 100 100 100 100 100 100 100 100 100 100 100 100 100 100 100 100 100 100 100 100 100 76 100 100

GFSSE_prec_cloud_096.txt.gz
Cloud_Cover
0 0 0 0 0 0 32 100 86 24 5 5 5 5 5 4 0 0 2 5 5 100 58 52 6 19 25 92 100 5 70 89 100 91 100 96 98 100 100 100 100 91 30
0 0 0 0 0 0 100 48 81 26 6 5 5 5 5 5 4 4 0 1 68 100 10 74 89 20 14 39 18 98 12 50 34 99 99 100 100 100 100 97 81 100 44
0 0 0 0 0 0 1 30 31 45 13 8 19 29 79 93 81 5 5 5 5 15 40 94 100 100 98 12 12 38 14 5 79 36 78 100 100 100 100 100 99 100 94
0 0 0 0 0 0 0 14 38 11 98 84 48 100 100 100 64 44 5 5 31 48 81 97 100 100 100 88 49 8 98 69 100 100 100 100 100 100 20 93 70 41 86
0 0 0 0 0 0 0 0 28 81 92 58 100 39 100 99 96 99 5 79 40 100 100 100 99 100 100 96 78 100 100 100 100 100 100 100 100 99 100 100 100 100 98
0 0 9 0 0 0 0 1 25 100 100 100 99 98 100 100 100 100 57 33 100 100 100 100 100 100 100 100 100 100 100 100 100 100 99 9 100 100 99 76 7 1 100
1 3 15 2 9 4 3 12 100 100 100 100 100 100 100 100 100 100 100 70 100 100 100 100 100 100 100 100 92 47 100 100 100 96 8 5 100 100 99 90 58 28 11
24 26 94 64 17 5 54 100 100 100 100 100 100 100 100 100 100 100 73 40 98 100 100 100 100 100 100 100 100 93 32 20 50 5 5 5 61 40 25 6 64 29 93
98 99 88 55 48 15 100 100 100 100 100 100 100 100 100 100 100 99 10 87 97 100 100 100 100 100 100 100 100 99 5 18 13 0 2 48 100 76 59 100 100 100 92
19 93 54 82 99 100 100 100 100 99 100 100 100 100 100 100 100 5 90 100 99 100 100 100 100 100 100 100 100 6 20 67 0 2 5 5 37 92 72 14 100 98 100
8 54 78 100 100 100 100 63 86 93 100 100 100 100 100 100 90 34 100 69 100 100 100 100 100 100 100 100 100 41 5 5 5 7 5 66 25 22 8 96 99 100 74
100 100 100 100 100 100 100 100 100 97 100 100 100 100 100 100 23 100 9 6 56 99 100 100 100 100 100 100 33 69 42 36 18 12 35 97 48 95 90 92 100 100 74
35 100 100 100 100 100 100 100 100 100 100 100 100 100 100 100 100 94 69 30 54 100 100 100 100 100 91 100 99 8 37 84 98 32 55 94 100 100 100 100 100 94 5
100 96 100 100 100 100 100 100 100 100 100 100 100 100 100 100 90 65 92 44 100 100 100 100 100 100 92 99 98 17 62 96 52 100 100 100 82 100 100 100 70 36 100
100 34 100 100 100 100 100 100 100 100 100 100 100 100 100 100 100 99 88 68 96 99 100 100 100 100 73 59 90 92 70 100 100 100 100 100 100 100 100 87 12 100 16
100 88 94 96 98 100 100 100 100 100 100 100 100 100 100 100 100 100 73 96 100 100 100 100 100 77 43 98 100 98 100 99 100 100 100 100 100 100 100 100 47 6 13
100 100 58 100 92 100 100 100 100 100 100 100 100 100 100 100 100 100 42 94 100 100 100 100 100 94 99 99 100 100 100 100 100 83 92 100 100 100 100 92 9 32 100
82 45 100 100 100 100 100 100 100 100 100 100 100 100 100 100 100 100 100 98 100 99 98 100 100 100 100 100 100 74 100 100 100 77 100 99 29 100 23 35 100 100 100
44 100 86 100 95 99 100 100 100 100 100 100 100 100 100 100 100 100 100 100 100 100 98 100 100 100 100 100 100 100 100 100 100 100 95 100 44 22 8 98 100 100 100
10 100 100 100 100 90 100 100 100 100 100 100 100 100 100 100 100 100 100 100 100 100 100 100 100 100 100 100 100 92 80 95 96 89 94 76 50 26 24 100 100 100 100
98 85 99 100 100 100 100 100 100 100 100 100 100 100 100 100 100 100 100 100 100 100 100 100 100 91 100 100 100 100 100 100 100 100 100 23 23 61 100 100 100 100 100
100 100 100 100 95 100 100 100 100 100 100 100 100 100 100 100 100 100 100 100 100 100 100 100 100 100 100 100 100 100 100 100 97 54 100 100 100 100 100 100 100 100 86
100 100 100 100 100 100 100 100 100 100 100 100 100 100 100 100 100 100 100 100 100 100 100 100 98 93 98 100 100 100 100 100 100 100 100 100 100 100 100 100 100 100 100
100 100 100 100 100 96 100 100 100 100 100 100 100 100 100 100 100 100 100 100 100 100 100 100 100 100 100 100 100 100 100 100 100 100 100 100 100 100 100 100 100 100 100
53 91 100 100 100 100 100 99 100 100 100 100 100 100 100 100 100 100 100 100 100 100 100 100 100 100 100 100 96 100 100 100 100 100 100 100 100 100 100 100 100 100 100
23 100 100 100 97 99 100 100 100 100 100 100 100 100 100 100 100 100 100 100 100 100 100 100 100 100 100 100 100 100 100 100 100 100 100 100 100 100 100 100 100 100 100

GFSSE_prec_cloud_099.txt.gz
Cloud_Cover
0 8 0 0 0 0 0 0 11 56 99 17 98 1 0 0 0 0 0 0 0 3 5 30 5 99 100 63 5 2 5 2 30 5 93 100 97 56 97 23 77 81 100
0 0 0 0 0 0 0 0 92 94 54 97 6 5 5 5 4 5 0 0 0 5 47 36 67 100 54 5 5 100 100 100 52 5 38 99 100 100 100 98 94 100 99
0 0 0 0 0 0 0 0 4 5 3 5 5 5 5 4 4 5 0 1 0 6 80 100 100 94 75 90 100 99 100 83 53 64 100 100 100 99 100 100 100 100 100
0 0 0 0 0 0 0 0 40 5 57 79 37 100 50 22 5 5 5 5 5 28 100 100 100 84 100 80 100 100 100 70 36 98 100 46 100 85 100 100 100 100 100
0 0 0 0 0 0 0 0 0 80 14 97 22 5 96 42 89 24 80 21 8 45 100 100 65 97 100 100 100 100 92 12 89 100 100 91 100 100 100 100 100 100 100
0 0 0 0 3 0 0 0 0 41 100 31 97 29 99 97 100 84 100 38 5 83 99 100 5 36 29 88 98 100 100 100 97 98 99 100 100 100 100 100 100 100 100
0 2 100 84 11 99 16 0 2 56 81 100 100 100 100 100 100 100 89 96 7 30 99 64 57 100 100 62 95 100 100 100 100 100 100 100 100 100 100 100 100 100 100
0 5 2 55 100 100 100 5 2 63 100 100 100 100 100 100 100 100 100 90 87 8 99 99 100 100 100 71 100 100 100 100 97 100 100 100 100 100 100 100 84 93 73
0 0 91 100 99 30 64 25 96 100 100 100 100 100 100 100 100 100 99 96 87 36 18 100 100 100 100 91 100 100 100 100 68 91 84 100 100 76 25 46 100 100 62
0 4 4 100 100 100 70 100 100 100 100 97 100 100 100 100 100 100 100 100 98 98 53 100 100 100 100 100 100 100 100 86 18 4 5 70 98 7 22 87 100 100 95
0 99 100 100 100 100 100 100 100 100 98 80 100 15 100 100 100 100 100 100 61 100 56 98 100 100 100 100 100 100 54 12 5 49 5 5 18 34 97 100 100 90 100
1 7 100 100 100 100 100 100 100 100 92 100 100 82 100 99 100 100 100 66 28 45 100 100 100 100 100 100 100 100 45 62 26 16 11 14 63 99 92 97 81 76 80
88 33 100 100 100 100 100 100 100 100 100 100 100 100 100 100 100 100 98 41 51 100 100 100 100 100 100 100 100 100 80 99 96 89 86 97 99 100 100 30 54 100 99
3 3 100 100 100 100 100 100 100 100 100 100 100 100 100 100 100 100 100 68 53 63 95 100 100 100 100 100 89 68 25 61 100 97 83 100 94 100 96 100 78 97 100
0 17 29 100 100 100 100 100 100 100 100 100 100 100 100 100 100 100 100 32 8 23 73 100 100 100 100 92 99 64 75 90 98 100 99 84 100 100 100 100 100 51 22
0 38 67 37 100 100 100 100 100 100 100 100 100 100 100 100 100 100 48 62 16 56 99 97 100 100 100 77 100 96 43 100 91 100 100 100 100 100 100 100 100 85 100
0 0 7 19 100 100 100 100 100 100 100 100 100 100 100 100 100 100 94 100 69 93 98 96 100 100 99 96 96 92 34 93 52 55 99 100 100 79 100 98 93 89 96
0 2 2 8 50 100 100 100 100 100 100 100 100 100 100 100 100 100 100 100 100 100 100 100 100 100 99 100 97 98 83 62 91 66 96 100 100 100 22 84 100 82 82
0 13 14 81 50 98 100 100 100 100 100 100 100 100 100 100 100 100 100 100 100 100 100 100 100 100 90 94 94 99 98 100 72 100 100 100 100 97 69 75 100 18 58
0 0 4 48 40 100 100 100 100 100 100 100 100 100 100 100 100 100 100 100 100 100 100 100 100 100 96 97 100 50 74 97 100 100 97 100 99 65 22 80 80 49 19
0 6 19 59 100 97 100 100 100 100 100 100 100 100 100 100 100 100 100 100 100 100 100 100 100 100 100 100 100 99 94 100 100 100 100 96 77 94 48 10 81 100 20
0 100 73 79 100 93 100 100 100 100 100 100 100 100 100 100 100 100 100 100 100 100 100 100 100 100 100 98 71 100 100 100 97 97 98 100 93 40 6 100 100 99 40
0 100 100 48 1 99 100 100 100 100 100 100 100 100 100 100 100 100 100 100 100 100 100 100 100 95 98 100 100 100 100 100 100 96 100 78 100 100 100 100 100 54 10
19 100 100 92 40 66 63 100 100 100 100 100 100 100 100 100 100 100 100 100 100 100 100 100 100 100 100 100 100 100 100 100 96 98 100 100 100 100 100 100 100 100 100
19 100 100 75 100 100 14 100 100 100 100 100 100 100 100 100 100 100 100 100 100 100 100 100 100 100 100 100 100 100 100 100 95 100 100 100 100 100 100 97 100 100 100
0 100 100 100 100 100 100 89 100 100 100 100 100 100 100 100 100 100 100 100 100 100 100 100 100 100 100 100 100 100 99 90 96 100 100 100 100 100 100 100 100 100 100

GFSSE_prec_cloud_105.txt.gz
Cloud_Cover
10 8 10 20 0 0 8 2 0 4 14 26 23 2 100 74 63 5 0 0 0 0 0 0 1 0 23 100 19 2 0 0 32 0 5 94 100 97 55 71 100 82 62
4 63 4 0 0 0 9 14 2 0 22 15 36 43 96 5 33 42 27 0 0 0 0 3 4 30 100 40 5 88 93 40 27 4 3 85 100 100 100 99 100 78 100
12 50 6 0 0 0 0 0 0 0 24 76 67 96 38 13 65 5 0 0 0 5 71 2 0 100 100 50 66 51 7 36 99 100 84 94 100 86 100 100 100 100 100
4 36 11 0 0 0 0 0 0 76 48 63 7 92 5 76 5 10 5 0 0 100 13 0 57 99 95 71 79 75 6 5 100 100 100 100 95 100 100 100 100 100 99
0 30 5 0 0 0 0 1 0 0 91 100 5 5 15 68 23 93 31 1 1 100 96 1 81 39 100 96 100 14 21 90 100 100 85 100 100 100 100 100 100 100 100
0 10 13 0 0 0 4 24 0 0 0 52 47 100 22 52 88 60 66 5 5 6 97 5 20 50 94 83 50 96 65 94 100 90 80 100 100 100 96 100 100 100 97
0 0 7 2 0 0 2 8 13 5 5 6 68 100 100 95 79 100 54 17 100 58 95 10 18 10 100 25 88 68 98 100 100 99 100 99 88 100 100 100 100 100 100
4 9 13 33 1 0 4 0 2 11 76 86 60 100 100 100 100 100 100 100 100 100 98 84 61 100 45 50 100 78 100 95 100 100 100 100 100 100 100 100 100 100 100
4 23 20 27 24 31 73 84 58 91 67 100 33 100 100 100 100 100 100 100 100 100 94 100 88 94 79 74 76 100 100 100 100 100 100 100 100 100 100 100 100 100 100
15 18 30 29 25 52 73 48 45 100 100 100 100 100 100 98 100 100 100 100 100 100 100 100 100 11 98 7 39 100 100 100 100 76 100 100 99 100 100 100 100 100 100
9 24 30 30 18 15 23 21 56 100 100 100 100 100 100 100 100 100 100 100 100 100 98 89 57 16 96 5 98 100 100 100 100 100 100 100 100 100 100 92 69 100 100
0 8 29 22 20 24 46 61 68 100 100 100 100 100 100 100 100 100 67 74 100 100 98 84 11 13 18 29 97 100 99 100 100 100 100 100 100 100 69 100 100 88 94
0 0 9 5 20 72 79 100 78 100 100 100 100 100 100 100 100 100 100 100 100 100 99 70 48 52 80 92 55 94 100 100 100 100 100 71 91 100 100 100 100 97 55
0 0 0 0 85 100 100 100 100 97 100 100 100 100 100 100 100 88 86 100 100 92 100 99 48 87 100 80 51 100 100 100 100 100 81 100 98 99 94 56 80 51 30
0 1 0 6 63 100 100 100 84 100 100 100 100 100 100 100 100 100 98 100 96 100 92 100 100 96 99 86 96 100 100 100 100 96 100 76 99 100 32 6 8 59 11
2 0 5 22 27 49 98 100 100 100 100 100 100 100 100 100 100 100 100 100 100 100 100 100 54 99 99 97 69 100 100 100 100 94 18 43 40 44 95 67 40 100 100
4 1 17 14 8 20 39 100 100 100 100 100 100 100 100 100 100 100 100 100 98 92 100 91 23 32 87 50 96 100 80 56 19 42 69 100 36 60 100 100 100 100 100
19 10 20 17 21 17 35 94 100 100 100 100 100 100 100 100 100 100 100 100 90 100 74 81 88 100 50 59 17 56 91 91 91 51 56 90 100 100 100 100 100 100 68
24 16 40 32 20 30 34 88 100 100 100 100 100 100 100 100 100 100 100 100 100 100 100 53 46 27 62 89 100 92 15 7 100 92 75 91 100 100 100 100 100 98 51
28 19 26 33 14 21 33 100 99 100 100 100 100 100 100 100 100 100 100 99 100 89 36 81 52 80 8 65 97 100 67 94 93 84 68 84 99 96 95 92 99 100 100
56 40 37 60 32 50 96 100 99 100 100 100 100 100 100 100 100 100 100 100 100 100 100 100 100 100 100 100 98 100 100 100 74 100 100 98 100 100 80 100 99 90 82
93 37 100 61 67 41 18 59 72 87 100 100 100 100 100 100 100 100 100 100 100 100 100 100 100 100 100 100 100 100 100 100 100 100 100 100 98 96 97 100 95 100 100
71 72 59 60 91 25 7 76 98 99 100 100 100 100 100 100 100 100 100 100 100 100 100 85 79 100 100 100 100 100 92 98 100 100 100 96 60 99 100 100 100 100 94
100 45 44 100 51 6 69 64 77 100 100 100 100 100 100 100 100 100 100 100 100 86 100 99 100 100 100 100 100 98 84 99 100 100 100 99 99 100 100 100 100 100 100
100 70 92 85 28 25 16 88 100 87 64 100 100 100 100 100 100 100 100 100 100 100 100 100 100 100 100 100 100 100 100 100 100 100 100 100 100 95 100 100 100 100 100
49 76 97 100 100 79 31 74 77 78 100 100 100 100 100 100 100 100 100 100 100 100 100 100 100 100 100 100 100 100 100 100 100 100 100 100 100 100 100 100 100 100 100

GFSSE_prec_cloud_111.txt.gz
Cloud_Cover
0 0 0 6 98 1 0 0 2 0 0 0 0 1 0 0 52 24 40 96 46 1 8 1 2 2 0 5 2 5 0 0 0 0 3 59 96 62 30 5 42 34 4
0 0 1 2 99 60 0 1 8 0 0 0 5 9 3 7 100 96 67 69 91 3 23 2 5 5 5 0 0 0 0 0 0 0 0 2 62 94 10 87 67 63 5
0 0 0 0 94 86 8 28 1 20 0 0 0 16 2 8 76 100 13 5 6 56 12 0 0 7 25 5 2 4 5 5 4 5 0 58 61 86 22 12 5 85 5
0 0 0 0 54 89 0 3 4 5 8 14 29 10 14 92 100 63 78 20 8 5 67 0 8 100 18 5 5 5 5 35 38 93 62 99 96 48 7 0 4 5 9
0 0 0 23 90 100 0 1 36 80 66 2 0 25 1 87 70 100 99 31 94 5 5 9 11 23 5 5 5 42 6 13 11 48 84 58 67 75 8 22 5 72 94
0 0 25 1 27 100 0 0 2 73 100 0 56 79 56 100 100 100 70 78 20 5 6 8 33 23 5 48 86 5 84 60 35 62 67 80 100 27 78 100 100 100 100
0 0 0 0 0 85 93 1 0 2 96 52 100 89 57 100 100 100 88 99 42 5 2 12 24 7 8 95 72 94 14 70 5 63 100 100 78 9 5 89 100 70 99
0 0 5 11 0 19 93 100 3 0 0 50 100 100 97 100 100 77 88 100 65 84 81 5 18 5 8 94 87 100 36 93 73 87 88 92 43 5 28 34 79 99 34
0 0 13 16 13 18 40 100 80 0 0 52 100 100 96 96 100 100 100 100 100 100 100 100 26 35 90 98 100 94 42 100 83 100 90 99 100 26 100 100 100 100 100
0 0 0 21 35 58 59 8 97 0 0 6 99 78 100 100 100 100 100 100 100 100 100 100 26 5 98 100 100 100 100 96 66 69 94 82 100 100 88 85 89 96 100
16 1 0 46 63 96 100 36 23 17 0 0 90 98 75 99 100 100 92 100 37 100 100 100 52 100 100 100 41 52 100 79 48 73 100 100 100 100 100 100 100 100 100
1 63 21 38 92 100 100 89 90 97 96 75 5 100 62 86 95 100 96 100 78 100 100 100 100 100 99 100 46 99 73 59 45 100 100 100 17 100 100 100 99 100 100
0 1 40 42 68 100 100 84 100 100 100 100 92 100 96 100 84 83 98 100 93 100 96 100 100 100 99 20 34 92 31 99 94 96 98 100 100 97 100 24 87 100 100
5 0 0 31 64 95 100 100 100 100 100 100 100 100 100 100 97 14 96 100 100 100 100 100 100 100 90 60 12 99 87 98 98 9 75 100 96 100 100 99 100 88 100
45 5 0 8 56 98 100 100 100 100 100 100 100 100 100 100 100 41 99 100 95 100 100 99 100 100 99 88 93 97 8 68 57 100 99 100 94 100 100 98 100 100 100
11 4 0 2 82 100 100 100 94 100 100 100 100 100 100 100 38 98 100 99 100 100 100 100 100 100 94 100 100 88 16 58 85 83 100 100 93 79 100 100 100 100 100
5 5 0 2 87 100 98 97 100 100 100 100 100 100 100 100 100 91 100 100 100 100 100 100 100 100 100 100 66 73 68 96 100 19 26 96 58 93 100 100 100 100 100
6 7 0 2 86 100 100 100 81 100 100 100 100 100 100 100 100 96 100 100 100 100 100 100 100 100 100 91 46 82 84 69 100 91 100 91 95 53 82 89 98 100 100
77 5 3 6 44 100 100 96 92 100 100 100 100 100 100 100 100 100 100 100 100 100 100 100 100 100 100 95 88 59 85 76 78 6 23 33 24 27 100 99 100 100 100
57 5 5 10 35 99 100 100 100 99 98 85 100 100 100 100 100 100 100 100 100 100 100 100 100 100 99 100 42 91 100 84 84 70 5 5 13 34 82 100 100 85 95
5 4 5 33 70 99 100 100 100 100 100 100 100 100 100 100 100 100 100 100 100 100 100 100 100 100 100 100 94 100 99 99 99 100 74 6 30 32 78 100 100 100 100
26 27 52 47 81 99 100 100 58 94 100 100 100 100 100 100 100 100 100 100 100 100 100 100 95 88 98 92 100 100 91 78 90 100 100 100 88 98 95 100 100 84 100
64 100 100 96 96 85 54 92 69 98 100 100 100 97 100 100 100 100 100 100 100 100 100 100 100 94 100 100 100 99 100 100 100 97 100 100 99 98 99 100 100 100 94
94 100 100 98 98 100 92 72 50 100 86 67 90 100 100 100 100 100 100 100 100 100 100 100 100 100 100 100 100 100 95 96 100 100 98 61 82 95 100 100 100 82 98
29 100 100 60 79 100 100 95 90 100 98 100 100 99 100 100 100 100 100 100 100 100 100 100 100 100 100 100 100 100 100 94 52 72 97 79 90 99 100 100 100 100 100
97 97 100 68 100 100 100 100 100 100 100 100 100 100 100 100 100 100 100 100 100 100 100 100 100 100 100 100 100 100 100 98 66 86 62 47 99 81 100 100 100 100 98

GFSSE_prec_cloud_117.txt.gz
Cloud_Cover
0 0 0 0 0 0 0 0 0 0 0 0 0 0 5 0 0 0 2 4 0 0 2 26 1 0 4 0 2 5 5 5 5 5 5 9 4 0 1 32 3 14 0
0 0 22 0 0 0 0 0 0 0 0 0 0 6 0 0 0 97 64 44 5 0 6 2 0 3 4 1 2 5 24 84 5 5 3 0 3 0 0 0 8 14 5
0 0 1 0 0 0 0 0 0 3 2 0 0 0 0 0 0 68 99 97 6 3 18 0 0 2 2 0 0 1 5 5 5 0 0 100 28 0 0 2 3 2 5
0 0 0 0 0 0 0 0 0 21 2 0 0 0 0 0 15 99 100 100 100 70 90 6 12 16 7 0 0 0 2 0 0 0 35 98 88 16 0 0 4 7 71
0 0 0 0 0 0 0 0 0 6 40 41 6 0 0 21 100 100 100 100 100 100 100 41 62 16 1 5 0 0 0 5 1 20 99 100 78 13 1 0 0 2 5
0 0 40 0 0 0 0 0 0 11 82 87 71 0 0 98 100 100 100 100 100 100 100 100 100 46 0 2 5 1 2 2 0 73 97 74 68 5 10 2 0 0 2
0 0 0 0 0 0 0 0 0 12 92 99 0 0 0 86 100 100 100 100 100 100 100 100 29 5 0 0 5 5 4 1 77 100 42 64 50 10 21 4 66 97 100
0 0 0 7 0 0 0 0 0 0 78 2 0 0 0 40 100 100 100 100 100 100 100 100 69 5 0 4 5 5 5 0 73 100 93 35 15 57 19 5 5 10 99
0 0 0 0 0 0 0 0 0 0 0 0 0 0 0 0 90 100 100 100 94 100 100 100 26 6 13 35 4 5 5 4 96 93 100 82 2 13 21 1 64 26 66
0 0 0 0 0 0 0 4 0 0 0 0 0 0 0 3 6 40 96 100 64 100 100 70 88 55 70 28 100 5 31 16 36 70 82 48 5 23 74 5 5 16 89
0 0 0 0 0 1 0 1 41 13 1 9 1 1 67 1 0 5 100 55 100 100 100 100 100 100 95 61 94 12 5 97 89 91 95 7 5 73 23 5 99 20 38
0 0 0 0 0 3 0 21 11 4 2 3 0 3 0 13 24 0 65 93 67 74 100 100 100 100 100 98 62 97 61 42 100 100 100 95 13 52 66 100 58 86 99
0 0 0 0 0 2 98 53 3 26 0 36 82 54 15 34 5 82 88 60 100 100 100 100 100 100 98 82 78 73 29 36 100 100 100 100 88 71 100 87 99 100 100
0 0 0 0 0 11 3 1 0 12 4 47 54 79 26 31 18 62 85 41 98 100 100 100 100 100 100 100 100 99 94 100 100 98 98 44 39 16 100 99 100 100 100
42 0 0 0 1 35 2 0 0 21 9 8 35 29 22 53 24 82 99 48 65 100 100 100 100 100 100 100 100 99 100 77 76 92 86 48 15 61 100 100 100 100 100
85 0 0 4 5 17 99 29 2 6 19 67 64 64 55 26 2 30 18 100 96 100 100 100 100 100 100 100 100 100 98 72 83 91 18 68 92 95 100 100 100 100 100
40 0 4 5 5 38 100 100 24 0 14 79 81 48 80 42 15 8 14 100 99 96 100 100 100 100 100 100 100 100 100 99 55 20 4 59 97 100 100 100 99 90 100
16 1 1 11 54 10 28 25 1 8 44 39 87 35 46 83 46 36 76 34 100 98 100 100 100 100 100 100 100 100 100 94 79 5 27 24 52 93 98 100 100 100 99
20 26 4 75 62 5 10 18 14 46 26 86 94 62 55 87 82 70 92 82 98 93 100 100 100 100 100 100 100 100 100 92 75 79 91 87 41 76 100 100 90 99 91
22 100 5 72 71 5 51 44 34 45 98 100 100 99 90 63 89 34 90 97 91 100 100 100 100 100 100 100 100 100 100 100 67 92 5 63 27 100 100 75 58 61 73
84 100 5 62 12 5 26 43 90 100 100 100 100 100 88 26 70 58 71 93 88 100 100 100 100 100 100 100 100 100 100 100 100 40 6 61 73 35 47 100 100 100 100
100 100 100 100 45 35 79 100 90 36 58 71 96 100 84 53 89 95 84 79 80 100 100 100 100 100 100 100 100 100 100 100 100 75 59 38 99 98 82 94 86 90 86
100 100 100 100 37 75 100 100 80 92 99 100 100 84 100 91 80 85 80 100 100 100 100 100 100 100 100 100 100 100 100 100 90 100 89 64 95 95 98 100 89 98 100
100 100 100 100 100 43 61 83 49 46 70 32 29 39 91 65 76 97 100 100 100 100 100 100 100 100 100 100 100 100 100 99 100 100 100 100 100 100 99 51 92 100 100
100 100 100 100 97 99 47 34 84 24 19 0 0 25 100 48 73 92 100 100 100 100 100 100 100 100 100 100 100 100 100 96 100 100 100 98 83 76 97 100 94 84 82
77 87 92 100 89 100 100 72 86 37 8 0 3 7 96 46 71 69 97 100 100 100 100 100 100 100 100 100 100 100 100 100 100 100 100 100 98 68 99 100 100 100 98

GFSSE_prec_cloud_120.txt.gz
Cloud_Cover
0 0 0 0 0 0 0 0 0 0 0 0 0 0 0 0 0 0 0 0 0 0 3 0 0 0 0 0 0 0 5 5 5 5 5 11 5 5 20 12 96 31 4
0 0 4 0 0 0 0 0 0 0 0 0 0 0 1 0 0 0 14 80 93 5 13 5 0 0 5 5 0 5 5 5 5 5 5 5 5 9 4 5 5 22 0
0 0 0 0 0 0 0 0 0 0 0 0 0 0 0 0 0 36 100 100 100 100 87 75 7 6 8 0 2 5 5 5 5 3 1 0 0 4 4 2 0 0 0
0 0 0 0 0 0 0 0 0 0 4 0 0 0 0 0 89 100 100 100 100 100 100 74 68 50 100 32 5 0 3 5 5 0 0 0 36 0 0 0 0 0 1
0 0 0 0 0 0 0 0 0 0 3 10 17 0 0 7 100 100 100 100 100 100 100 100 100 100 100 7 5 4 0 0 0 9 1 28 6 11 1 0 0 0 1
0 0 23 0 0 0 0 0 0 0 100 100 100 0 0 27 100 100 100 100 100 100 100 100 100 100 100 91 44 4 1 0 0 5 96 0 3 1 5 0 0 3 1
0 0 0 0 0 0 0 0 0 0 82 100 53 0 0 4 100 100 100 100 100 100 100 100 100 100 100 12 5 1 1 0 2 32 50 7 2 12 4 1 5 5 5
0 0 0 0 0 0 0 0 0 0 66 100 0 0 0 1 61 98 100 100 100 100 100 100 100 100 100 42 5 5 5 5 44 98 49 38 6 100 91 38 42 19 23
0 0 0 0 0 0 0 0 0 0 5 50 15 0 0 0 24 90 100 100 100 100 100 100 100 100 100 41 30 5 79 98 15 100 19 19 62 100 89 20 8 5 4
0 0 0 0 0 0 0 6 0 0 0 0 13 0 0 0 0 100 100 100 100 100 100 100 66 100 100 8 12 36 5 10 85 69 22 20 0 22 18 5 69 5 2
0 0 0 0 0 0 0 0 14 2 1 8 12 0 9 0 0 0 97 100 100 100 100 100 100 100 100 45 100 51 99 55 9 5 13 3 2 47 36 19 47 13 8
0 0 0 0 0 0 0 0 0 0 0 0 0 43 0 0 0 0 10 100 100 100 100 100 100 100 100 100 86 100 100 10 84 6 98 50 100 100 100 100 20 9 95
0 0 4 0 0 0 0 0 0 0 0 0 0 0 1 0 0 0 3 40 20 52 97 100 100 100 100 100 100 90 95 6 44 50 100 100 100 100 100 100 14 77 100
3 6 1 5 5 0 0 0 0 0 1 0 0 0 0 0 0 0 2 7 6 7 6 100 100 100 93 100 83 94 62 100 78 85 100 100 100 100 100 17 20 77 38
100 100 96 25 2 0 0 0 2 0 5 0 0 0 0 0 0 0 1 11 5 6 19 100 100 99 100 92 100 84 98 95 100 71 100 100 100 100 27 16 97 100 100
100 52 100 3 0 1 0 1 5 5 4 0 0 0 0 0 0 0 6 98 6 81 100 99 100 100 100 83 100 100 98 99 100 86 53 37 100 5 5 86 100 100 94
100 8 13 7 0 14 5 5 5 4 5 0 0 0 0 0 0 0 63 60 59 37 100 100 100 100 100 100 100 100 100 100 100 40 31 6 30 5 100 100 100 100 100
42 5 6 5 3 5 9 5 5 13 5 0 80 2 0 2 0 0 1 40 63 9 100 100 100 100 100 100 100 100 100 100 100 99 83 95 18 9 100 100 100 100 100
100 90 57 8 3 2 56 5 39 4 11 19 0 14 5 26 0 0 0 5 5 25 84 100 100 100 100 100 100 100 100 100 100 100 100 9 44 98 97 99 100 100 100
96 21 10 94 5 5 100 20 5 5 6 9 12 5 1 0 1 0 0 3 11 56 51 99 100 100 100 100 100 100 100 100 100 78 66 88 100 80 44 71 100 100 100
74 93 100 9 60 5 25 20 6 12 58 40 100 100 32 60 0 4 0 13 96 38 37 100 100 100 100 100 100 100 100 100 100 98 100 81 40 10 98 100 100 87 100
35 21 95 96 13 5 7 42 84 99 94 100 100 100 100 88 1 0 12 0 78 100 79 100 83 96 100 100 100 100 100 100 100 100 81 76 49 68 93 53 60 54 99
100 94 100 100 100 76 28 100 100 100 100 97 100 100 100 100 93 50 27 35 10 67 100 100 97 100 100 100 100 100 100 100 100 100 100 62 100 78 100 96 99 95 100
100 100 100 100 100 100 100 100 100 100 100 99 100 100 100 100 100 100 37 100 31 73 72 100 100 100 100 100 100 100 100 100 100 100 100 100 99 96 69 100 100 100 100
100 100 100 100 100 100 100 100 100 100 100 100 98 27 60 86 55 15 85 97 82 84 99 100 100 100 100 100 100 100 100 100 100 100 100 100 100 100 100 100 100 100 89
57 99 100 100 100 100 88 74 96 95 75 27 15 42 11 59 96 69 51 100 100 80 88 94 100 100 100 100 100 100 100 100 100 100 100 100 100 100 100 100 100 100 66

GFSSE_prec_cloud_123.txt.gz
Cloud_Cover
0 4 0 0 0 0 0 0 0 0 0 0 0 0 0 0 0 0 0 5 70 96 92 100 48 0 0 0 0 5 10 5 42 100 100 100 100 100 100 100 100 100 100
0 1 0 0 0 0 0 0 0 0 0 0 0 0 0 0 0 0 13 100 100 100 100 100 98 7 55 3 0 5 5 5 4 3 86 100 100 100 100 100 100 100 100
0 0 0 0 0 0 0 0 0 0 0 9 0 0 0 0 0 0 100 100 100 100 100 100 100 54 67 90 10 5 5 5 5 5 5 5 30 62 100 100 100 100 85
0 0 0 0 0 0 0 0 0 0 2 0 0 0 0 0 0 4 100 100 100 100 100 100 100 100 100 94 100 5 18 45 5 5 5 5 0 12 20 0 0 0 0
0 0 0 0 0 0 0 0 0 0 0 0 0 0 0 0 0 89 100 100 100 100 100 100 100 100 100 100 100 28 5 24 5 5 3 1 30 35 27 18 0 4 5
0 0 0 0 0 0 0 0 0 0 31 0 0 0 0 0 0 89 100 92 100 100 100 100 100 100 100 100 70 7 41 5 5 4 0 0 4 29 10 5 1 1 3
0 0 0 0 0 0 0 0 0 0 0 0 0 0 0 0 0 80 100 100 100 100 100 100 100 100 100 100 69 6 71 5 0 3 0 4 0 8 43 31 6 5 6
0 0 0 0 0 0 0 0 0 0 2 0 0 0 0 0 0 0 100 100 100 100 100 100 100 100 100 100 72 6 43 5 1 0 1 5 7 100 100 98 100 90 52
0 0 0 3 0 0 0 0 0 0 2 14 0 0 0 0 0 0 85 100 100 100 100 100 100 100 100 100 100 95 62 32 5 40 4 2 40 100 100 100 55 13 32
0 2 0 3 16 25 30 6 0 0 0 0 0 0 0 0 0 0 0 99 100 100 100 100 100 100 84 100 100 5 7 20 10 7 38 12 94 100 100 100 80 15 6
0 0 5 1 7 17 14 7 2 0 0 1 1 0 0 0 0 0 0 0 100 100 100 100 100 100 100 100 100 4 65 80 100 9 18 16 55 100 100 99 69 15 85
4 14 100 18 0 5 0 8 28 20 26 42 36 0 0 0 0 0 0 0 25 100 100 100 100 100 100 100 100 78 91 100 80 83 84 5 86 100 100 64 94 100 78
5 5 30 5 5 3 1 15 25 38 26 26 67 8 0 0 0 0 3 0 5 32 100 100 100 100 100 100 100 100 100 100 99 100 100 8 100 100 100 100 100 100 100
10 100 28 14 22 24 62 8 1 2 3 8 57 30 7 3 0 6 15 25 12 58 94 100 100 100 100 100 100 100 100 100 100 91 11 60 7 100 100 100 100 100 84
52 81 88 98 100 100 82 18 4 0 0 0 21 18 0 0 0 0 11 13 0 17 41 85 99 100 100 100 100 100 100 97 99 38 73 94 99 100 100 100 100 100 36
6 100 70 100 100 100 61 5 4 2 3 4 1 2 0 0 0 0 4 1 0 4 8 9 40 100 100 100 100 100 100 100 67 100 100 100 97 100 100 100 100 100 100
16 80 100 100 100 100 100 5 5 5 5 5 5 5 4 0 0 0 0 0 1 5 25 7 46 100 100 100 100 100 100 100 61 64 100 99 92 6 9 100 17 100 100
100 95 100 100 100 100 100 6 5 6 22 7 5 5 4 0 0 0 0 0 1 26 100 60 48 100 100 100 100 100 100 100 100 92 100 58 61 46 26 64 85 100 100
100 100 100 100 100 100 78 20 6 18 59 36 8 5 16 3 0 0 0 0 0 24 100 100 18 88 100 100 100 100 100 100 100 100 100 65 100 55 5 46 100 100 100
100 100 100 100 100 58 5 5 5 11 70 5 5 4 18 47 1 9 0 0 0 36 44 63 100 37 94 100 100 100 100 100 100 100 100 100 97 56 79 83 100 83 100
85 83 11 5 100 100 20 36 35 5 34 7 43 22 0 47 66 36 8 6 23 33 43 4 14 5 73 97 100 100 100 100 100 100 100 100 77 40 62 90 7 95 100
72 100 100 51 100 100 46 8 19 52 19 5 17 96 97 50 99 91 23 37 52 85 97 45 5 48 60 84 100 100 100 100 100 100 100 100 100 95 74 91 5 61 100
100 100 100 100 100 75 99 6 25 18 90 62 34 100 100 100 100 81 50 36 50 68 93 55 15 12 52 83 89 100 100 100 100 100 100 100 100 82 86 50 51 9 86
100 100 99 100 100 100 100 98 76 93 100 100 100 100 100 100 100 100 68 13 26 52 88 100 32 12 45 100 100 100 100 100 100 100 100 100 100 90 8 95 37 28 73
98 76 100 100 100 100 100 100 69 5 100 100 100 100 100 100 100 100 100 95 83 74 98 94 100 60 71 100 100 100 100 100 100 100 100 100 100 100 82 100 100 12 7
100 100 100 100 100 100 100 100 100 100 100 100 100 100 100 100 100 100 100 100 100 100 100 100 100 86 40 98 100 100 100 100 100 100 100 100 100 100 100 100 100 100 96

GFSSE_prec_cloud_129.txt.gz
Cloud_Cover
21 8 5 2 0 0 0 0 0 0 0 0 0 0 0 0 0 0 0 0 0 0 0 99 100 100 100 100 52 5 7 5 5 5 99 100 100 100 99 100 100 100 100
4 5 3 0 0 0 0 0 0 0 0 0 0 0 0 0 0 0 0 0 0 0 36 100 100 100 100 100 100 99 69 5 100 98 100 100 100 100 100 100 100 100 99
4 4 2 3 2 0 0 0 0 0 0 0 0 0 0 0 0 0 0 0 0 0 50 100 100 100 100 100 100 100 100 97 49 68 99 100 100 100 100 100 100 100 100
1 18 0 0 0 0 0 0 0 0 0 0 0 0 0 0 0 0 0 0 0 4 59 100 99 100 100 100 100 100 96 100 100 100 100 100 100 100 100 100 100 100 100
3 7 0 0 0 0 0 0 2 16 0 0 0 0 0 0 0 0 0 0 0 5 50 100 100 100 100 100 100 100 100 93 100 100 100 100 100 100 100 100 100 100 100
5 0 3 0 0 0 0 0 15 18 0 0 0 0 0 0 0 0 0 0 1 4 33 100 100 100 100 100 100 100 35 48 85 100 100 100 100 100 100 92 100 100 100
0 4 4 0 0 0 0 0 28 29 1 0 0 0 0 0 0 3 0 0 0 0 5 100 100 100 100 100 100 100 100 82 18 75 25 99 96 100 100 100 100 100 100
0 6 79 10 4 0 0 0 12 7 0 2 0 0 0 0 0 1 0 0 0 0 10 42 100 100 100 100 100 100 100 95 98 13 14 93 100 100 100 100 100 100 100
21 20 63 73 71 5 0 0 0 0 0 1 0 0 0 0 0 0 0 0 0 0 76 100 100 100 100 100 100 100 100 100 42 32 5 12 100 100 100 100 100 100 100
100 100 100 100 83 34 16 1 0 0 0 3 0 0 0 0 0 0 0 0 0 0 15 99 100 100 100 100 100 100 100 100 81 53 96 6 88 83 62 100 100 41 26
100 100 100 100 100 64 48 10 5 5 1 14 2 0 0 2 1 0 0 0 0 0 3 31 76 100 100 100 100 100 100 100 80 29 17 48 100 98 100 100 100 74 55
100 100 100 100 100 96 71 59 14 5 21 57 36 35 20 12 13 0 0 0 0 0 0 15 8 28 73 98 100 100 100 100 90 64 13 5 5 52 91 95 100 100 100
100 100 100 100 100 100 100 100 46 65 78 99 50 33 19 17 15 24 22 1 0 0 48 95 95 53 66 97 100 100 100 100 100 91 97 92 22 89 90 100 100 100 100
89 100 17 100 100 100 100 100 100 100 100 100 90 31 41 18 32 36 40 31 8 32 93 83 100 70 27 61 99 100 100 100 100 100 100 100 100 100 100 100 100 100 73
100 100 94 55 100 100 100 100 100 100 100 100 100 41 5 2 19 34 34 39 35 56 88 100 100 64 32 21 74 100 100 100 100 100 100 100 100 100 100 100 100 100 100
92 100 100 45 67 99 100 100 100 100 100 100 100 87 8 3 8 14 35 36 47 100 100 100 100 55 37 43 64 100 100 100 100 100 100 100 100 100 100 100 98 97 100
99 100 100 100 8 43 100 100 100 100 100 100 100 100 97 5 5 28 18 48 46 100 100 100 68 25 30 60 89 78 100 100 100 100 100 100 100 100 100 100 100 100 100
66 100 100 100 100 23 62 100 100 100 100 100 100 100 100 75 8 10 25 60 42 65 58 31 32 31 19 28 73 100 100 100 100 100 100 100 100 100 100 100 100 100 100
22 100 100 100 100 94 22 85 100 100 100 100 100 100 100 100 79 17 22 49 45 50 37 19 31 8 23 20 58 75 98 100 100 100 100 100 100 100 100 100 100 100 100
71 100 100 100 100 100 99 62 97 100 100 100 100 100 100 100 100 14 20 50 44 62 60 30 14 9 26 39 39 59 100 100 100 100 100 100 100 100 100 100 100 100 100
100 98 100 100 100 100 100 98 100 100 100 100 100 100 100 100 100 56 23 50 57 44 77 15 22 5 58 59 85 80 100 100 100 100 100 100 100 100 100 100 100 100 100
100 100 83 100 100 98 100 100 64 56 99 100 100 100 100 100 100 56 46 64 95 66 71 52 68 45 32 68 70 97 100 92 100 100 100 100 100 100 100 100 100 100 100
97 100 100 100 100 100 100 100 100 90 89 95 100 100 100 100 100 80 100 75 91 55 100 84 80 100 87 87 100 99 100 100 86 100 100 100 100 100 100 100 100 100 100
54 100 100 100 100 100 100 100 100 59 78 100 100 100 100 100 100 100 100 100 100 98 88 82 60 100 100 100 100 100 98 53 51 93 100 100 100 100 100 100 100 100 100
93 99 98 98 100 100 100 100 100 100 100 99 100 100 100 100 100 100 100 100 100 100 100 100 100 89 88 100 100 100 100 98 100 100 99 100 100 100 100 100 100 100 100
24 51 40 40 100 100 100 100 100 100 100 100 100 100 100 100 100 100 100 100 100 100 100 100 100 100 62 39 29 100 100 98 99 100 86 100 100 100 100 100 100 100 100

GFSSE_prec_cloud_132.txt.gz
Cloud_Cover
4 7 1 5 4 4 0 0 0 0 0 0 0 0 0 0 0 0 0 0 0 0 0 0 0 5 67 75 100 100 88 5 5 40 100 100 100 100 100 100 100 100 100
0 20 0 0 0 0 0 0 0 0 0 0 0 0 0 0 0 0 0 0 0 0 0 0 2 90 100 100 100 100 100 100 68 5 99 100 100 100 100 100 100 100 100
0 20 1 0 0 0 0 0 0 0 0 0 0 0 0 0 0 0 0 0 0 0 0 0 2 66 100 100 100 100 100 100 99 100 92 100 100 100 100 100 100 100 100
82 22 16 5 5 5 2 0 0 0 0 0 0 0 0 0 0 0 0 0 0 0 5 2 5 100 100 100 100 100 100 100 100 64 73 100 100 100 100 100 100 99 98
2 1 3 1 0 0 5 3 0 0 0 0 0 0 0 0 0 0 0 0 0 0 5 5 5 100 100 100 100 100 100 84 80 100 99 100 100 100 100 100 100 99 100
0 0 0 0 0 0 14 28 26 0 0 0 0 0 0 0 0 0 0 0 0 0 5 5 5 79 100 100 100 100 100 100 100 69 100 100 100 100 100 100 100 100 100
3 5 4 0 0 0 21 31 19 0 0 0 0 0 0 0 0 0 0 0 0 0 5 4 6 96 99 100 100 100 100 100 75 78 97 100 100 100 100 100 100 100 100
4 18 4 0 0 0 38 28 15 5 0 0 0 0 0 0 0 0 0 0 0 0 0 3 26 80 66 98 100 100 100 100 100 100 100 100 100 100 100 100 100 100 100
1 25 22 14 29 4 6 39 28 74 1 0 0 0 0 0 0 0 0 0 0 0 0 2 26 93 86 90 100 100 100 100 100 100 83 96 100 100 100 100 89 100 100
37 20 15 46 89 52 53 99 75 75 22 5 5 0 0 0 0 0 0 0 0 0 0 5 42 98 90 99 98 100 100 100 100 100 100 54 100 100 100 100 100 100 82
65 11 33 84 100 100 49 32 74 98 25 59 27 5 3 19 3 0 0 0 0 0 3 4 18 39 86 94 99 100 100 100 100 100 100 100 70 96 99 77 100 83 77
8 98 76 100 100 100 100 100 100 100 72 71 51 16 35 22 22 0 0 0 0 0 39 18 11 44 100 100 93 100 100 100 100 100 100 100 100 97 100 44 98 100 100
0 2 100 100 100 100 100 100 100 76 100 100 48 34 28 27 32 25 17 19 4 1 70 85 64 31 91 72 86 87 99 100 100 100 100 100 100 100 100 94 86 100 100
0 4 14 100 100 100 100 100 72 68 82 100 100 46 35 36 37 35 59 19 12 28 100 100 100 47 98 86 84 89 97 96 100 100 100 100 100 100 100 100 100 100 100
64 61 98 69 100 100 100 100 95 56 99 100 100 91 21 17 23 33 60 24 38 29 81 94 100 84 39 35 74 39 89 77 100 100 100 100 100 100 100 100 100 100 100
5 13 72 76 100 100 100 100 100 100 100 100 100 99 56 67 21 19 40 35 40 11 43 99 100 92 46 42 97 84 100 94 100 100 100 99 81 60 82 100 100 100 100
1 5 5 93 97 100 100 99 100 98 100 100 100 100 100 100 55 17 30 77 46 6 98 100 100 77 80 81 98 94 100 100 100 100 100 100 100 100 100 100 100 100 70
74 59 5 52 3 100 100 99 100 100 100 100 100 100 100 100 100 100 64 72 99 100 100 100 99 74 75 100 87 100 100 100 100 100 100 100 100 100 100 100 100 100 96
60 91 6 81 4 100 100 100 100 97 100 100 100 100 100 97 100 96 98 69 90 100 100 90 55 19 56 83 53 100 100 100 100 100 100 100 100 100 100 100 100 100 100
99 65 68 95 96 100 100 100 96 100 100 100 100 100 100 100 100 100 30 66 85 100 100 47 22 12 15 97 97 52 77 69 92 100 100 100 100 100 100 100 100 100 100
33 100 100 92 40 100 100 100 100 91 100 100 100 100 100 100 100 100 100 80 87 100 100 40 21 16 75 64 100 100 79 62 94 100 100 100 100 100 100 100 84 100 100
0 9 100 52 100 82 100 100 100 100 100 89 100 100 100 100 100 100 94 91 100 100 100 79 13 45 64 47 55 95 100 100 100 100 100 100 100 100 85 100 98 89 100
0 0 2 100 80 71 23 99 100 100 91 100 100 100 100 100 100 100 100 100 100 100 100 100 8 4 51 96 58 46 96 77 100 95 100 100 100 100 100 100 96 100 100
0 0 0 27 100 32 5 57 100 100 98 100 100 100 100 100 100 100 100 100 100 100 100 100 46 18 90 57 97 100 99 95 39 100 100 100 100 100 100 100 100 100 100
0 0 0 0 64 98 5 16 100 100 100 100 100 100 100 100 100 100 100 100 100 97 100 100 86 61 40 6 53 47 96 100 100 99 98 100 100 100 100 100 100 100 100
0 0 0 5 0 38 4 24 100 100 100 98 100 100 100 100 100 100 100 100 100 100 100 100 60 94 84 5 4 1 50 100 100 100 100 51 74 100 100 100 100 100 100

GFSSE_prec_cloud_135.txt.gz
Cloud_Cover
0 0 0 6 0 0 0 0 0 0 0 0 0 0 0 0 0 0 0 0 0 0 0 0 0 0 0 0 97 25 86 61 100 75 92 100 100 100 100 100 100 100 100
1 1 4 3 3 4 0 0 0 0 0 0 0 0 0 0 0 0 0 0 0 0 0 0 0 2 5 5 27 96 94 82 65 77 99 100 100 100 100 100 100 100 100
0 0 0 1 5 5 5 5 4 3 1 0 0 0 0 0 0 0 0 0 0 0 0 0 2 5 16 55 76 72 100 99 98 87 96 100 100 100 100 100 100 100 100
4 5 5 4 0 3 2 0 0 0 0 0 0 0 0 0 0 0 0 0 0 0 0 0 5 5 5 15 35 98 100 100 100 92 85 100 100 100 100 100 100 100 100
0 0 0 0 3 0 0 0 0 0 0 0 0 0 0 0 0 0 0 0 0 0 0 4 5 5 24 5 78 20 99 100 100 98 59 84 100 100 100 100 100 100 100
0 0 16 0 0 2 0 0 0 0 0 0 0 0 0 0 0 0 0 0 0 0 0 5 5 15 24 67 85 91 69 100 100 52 100 100 100 100 100 100 100 100 100
1 0 0 0 0 1 3 0 0 0 0 0 5 3 0 0 0 0 0 0 0 0 1 3 4 6 67 87 100 100 100 84 100 100 100 94 90 100 100 100 100 100 100
6 11 0 13 2 2 12 2 2 0 0 0 5 5 5 5 0 0 0 0 0 0 0 2 4 82 98 92 82 100 100 100 100 100 100 100 100 100 100 100 100 100 100
20 29 41 29 31 22 11 10 7 1 0 0 5 78 41 5 5 0 0 0 0 0 0 0 4 99 100 6 57 100 100 100 100 99 73 100 100 100 100 100 100 100 100
0 25 44 67 81 59 47 60 27 5 5 5 66 70 84 65 13 5 0 0 0 0 0 2 8 7 100 10 5 5 78 100 100 100 100 100 100 100 100 100 100 100 100
2 5 27 42 49 100 100 95 69 40 18 48 36 76 92 100 97 5 4 0 0 0 0 4 3 37 91 5 5 68 22 77 100 100 100 100 100 100 100 95 100 100 100
0 5 6 24 28 99 100 100 99 96 85 83 11 32 13 100 84 5 5 2 0 0 17 3 13 28 46 69 52 92 70 79 93 100 100 100 100 100 100 100 100 100 90
0 0 5 0 37 59 100 100 100 100 100 100 78 68 16 96 79 47 10 5 5 5 4 10 36 56 100 50 74 62 79 99 85 91 100 100 100 100 100 100 100 100 100
0 0 0 0 6 96 100 100 100 100 100 100 98 69 52 28 99 83 37 32 5 45 17 1 68 72 38 42 59 58 76 88 65 73 100 100 98 100 100 100 100 100 63
1 0 0 49 100 50 76 100 100 100 100 100 100 91 34 21 100 68 38 99 50 100 44 42 92 50 56 68 81 46 100 77 80 99 100 100 100 100 100 100 100 100 100
1 0 0 5 46 100 5 68 98 99 100 99 99 100 73 80 73 99 48 100 91 100 60 60 84 97 72 87 74 52 41 50 64 100 100 100 100 100 100 100 100 99 97
0 0 0 0 5 5 5 31 98 96 100 100 100 100 95 65 51 100 88 44 95 100 72 83 82 100 97 100 86 90 99 100 100 100 100 100 100 100 100 100 91 100 100
0 0 0 1 1 5 5 92 89 66 64 100 100 100 100 61 60 41 100 94 82 100 100 100 99 100 100 100 100 99 100 100 50 100 100 100 100 100 100 100 100 100 61
44 2 0 0 5 5 22 97 100 78 13 94 100 100 100 83 12 5 100 100 93 100 100 100 100 52 100 100 100 100 100 100 100 85 100 100 100 100 100 100 100 100 95
0 22 3 0 5 7 25 94 99 100 6 10 100 100 100 100 56 16 100 100 100 100 100 100 83 41 5 47 87 100 100 100 100 98 54 95 100 100 100 100 100 99 100
0 0 0 5 3 100 51 95 100 100 82 56 97 100 100 100 100 63 100 100 100 100 100 98 51 41 90 96 100 100 100 100 100 96 87 96 72 100 100 100 100 100 100
0 0 0 0 5 4 100 77 92 40 100 100 94 100 100 100 100 100 98 100 100 100 100 85 42 95 81 100 36 78 99 100 100 100 90 90 100 100 100 100 100 85 100
0 0 0 0 0 5 33 100 54 100 90 100 77 96 100 100 100 100 100 100 100 100 99 100 62 43 44 100 32 5 90 41 76 96 100 100 98 96 100 100 100 89 100
0 0 0 0 0 0 100 78 100 98 71 100 95 100 100 100 100 100 100 100 100 100 100 100 84 48 28 75 88 22 6 5 5 76 100 100 100 96 97 100 100 100 100
0 0 0 0 0 0 6 98 38 63 11 100 100 100 100 100 100 100 100 100 100 100 100 100 100 99 53 52 28 23 33 5 5 59 98 100 100 100 94 100 100 100 100
0 0 0 0 0 0 0 5 60 0 98 100 100 100 100 100 100 100 100 100 100 100 100 100 100 96 71 65 59 35 46 38 17 5 92 92 58 97 100 100 98 100 100

GFSSE_prec_cloud_138.txt.gz
Cloud_Cover
0 0 7 0 0 0 0 0 0 0 0 0 0 0 0 0 0 0 0 0 0 0 0 0 0 0 0 0 0 0 50 52 100 100 93 94 100 100 100 100 100 100 100
0 0 19 0 0 0 0 0 0 0 0 0 5 3 0 0 0 0 0 0 0 0 0 0 0 0 1 4 6 5 29 16 89 99 91 68 100 100 100 100 100 100 100
0 0 1 0 0 0 0 0 0 0 1 0 0 0 0 0 0 0 0 0 0 0 0 0 0 0 5 5 5 15 100 89 44 96 54 100 100 100 100 100 100 100 100
0 0 0 6 0 0 0 0 0 0 0 0 0 0 0 0 0 0 0 0 0 0 0 0 0 5 5 5 5 8 83 70 100 100 99 100 100 100 100 100 100 100 100
0 0 0 1 0 0 0 0 0 0 0 0 0 0 0 0 0 0 0 0 0 0 0 0 5 5 5 5 5 14 15 95 100 100 100 100 100 100 100 100 100 100 100
0 0 42 0 0 0 0 0 0 0 0 0 0 0 0 0 0 0 0 0 0 0 0 0 3 5 5 5 87 6 70 98 100 100 100 100 100 100 100 100 100 100 100
0 0 0 0 0 0 0 0 0 0 0 0 0 0 0 0 0 0 0 0 0 0 0 1 5 5 5 8 5 59 100 88 45 100 94 96 100 100 100 100 100 100 100
0 0 5 20 11 3 0 0 0 0 0 5 3 3 0 0 0 9 5 4 0 0 0 1 3 15 72 68 44 100 98 100 100 92 92 97 89 100 100 100 100 100 100
0 0 0 3 5 47 26 3 0 0 5 5 10 66 5 3 1 54 5 5 5 0 0 0 0 6 100 52 78 5 40 100 100 100 100 100 100 100 100 100 100 100 100
0 0 0 0 0 0 1 24 25 0 1 38 5 97 5 9 5 21 15 17 5 5 0 0 2 10 73 67 5 5 5 82 100 100 100 100 100 100 100 100 100 100 100
0 0 0 0 0 11 64 41 91 33 6 14 24 56 98 54 45 86 65 92 5 5 3 1 1 41 77 68 17 5 13 21 43 100 100 100 100 100 100 100 100 100 100
0 0 0 0 0 0 29 92 96 95 8 27 48 27 87 80 100 75 82 99 57 5 5 4 5 14 16 12 9 79 17 63 31 87 100 100 100 100 100 100 100 100 100
0 0 0 0 0 2 5 27 58 94 74 56 98 99 74 100 100 98 82 100 70 77 5 22 15 36 20 18 36 96 35 35 32 98 100 100 100 100 100 100 100 100 100
0 0 0 0 0 0 1 17 34 100 100 100 100 100 100 96 72 44 63 100 100 100 50 14 5 41 39 100 19 32 39 68 34 100 47 57 100 100 100 100 100 100 100
3 3 1 1 1 0 0 5 15 59 100 100 100 100 100 100 55 11 63 71 99 100 100 36 31 31 74 36 40 77 50 44 33 46 96 40 83 100 100 100 100 100 28
5 2 1 0 5 2 0 14 84 55 100 100 100 100 97 100 100 91 37 34 100 100 100 100 26 69 88 45 58 46 36 100 33 31 36 100 84 45 100 100 100 74 88
2 5 5 0 0 5 5 0 7 88 61 4 93 100 94 100 100 100 14 12 99 100 100 100 64 80 25 29 11 48 54 46 45 33 21 100 100 100 100 100 100 99 100
5 5 4 4 0 0 8 5 1 20 3 73 4 96 100 100 100 100 100 71 100 100 100 100 100 99 96 39 30 92 96 43 18 93 29 72 100 100 100 100 98 68 100
23 9 5 16 4 0 3 5 5 5 9 2 9 5 100 98 100 100 100 100 100 100 100 100 100 100 90 23 98 100 87 63 32 50 26 72 85 100 100 100 73 100 100
1 1 0 0 0 0 0 5 5 5 5 0 5 37 29 99 100 100 100 100 100 100 100 100 100 100 96 7 38 100 100 61 94 55 74 72 100 97 98 100 100 100 100
0 0 0 0 0 0 0 0 4 5 31 7 58 14 100 100 100 100 100 100 100 100 100 100 100 100 91 99 82 100 100 100 100 100 74 100 69 42 100 100 100 100 100
5 0 0 0 0 0 0 0 4 64 95 98 87 7 33 21 100 100 100 100 100 100 100 100 100 100 100 98 27 11 84 95 100 100 99 98 42 100 63 100 100 100 100
71 65 0 0 0 0 0 0 2 100 96 100 6 6 78 37 93 100 100 100 100 99 100 100 100 100 99 100 40 30 86 40 25 88 62 100 96 72 99 88 96 100 100
93 56 57 1 0 0 0 0 4 5 5 6 7 5 67 88 76 98 100 100 100 100 100 100 100 100 99 86 97 47 53 46 69 61 90 98 94 96 66 99 70 89 100
76 100 71 42 5 0 0 0 1 14 8 100 100 91 46 55 100 100 100 100 100 100 100 100 100 100 100 71 100 88 99 64 47 24 75 66 100 100 100 100 71 60 95
100 100 99 0 0 0 0 0 0 7 3 100 100 100 14 55 53 100 100 100 100 100 100 100 100 100 100 50 100 93 100 79 100 39 15 97 31 92 100 100 100 87 83

GFSSE_prec_cloud_141.txt.gz
Cloud_Cover
5 3 5 5 5 5 5 1 0 0 0 0 0 0 0 0 0 0 0 0 0 0 0 4 8 0 0 0 0 0 9 44 5 92 99 97 15 100 100 100 100 100 100
0 0 24 5 5 5 5 1 3 4 0 0 0 0 0 0 0 0 0 0 0 0 4 7 0 0 0 0 0 3 24 4 18 73 100 88 100 100 100 100 100 100 100
0 0 1 0 0 1 0 0 0 0 0 0 0 0 0 0 0 0 0 0 0 8 0 0 0 0 0 2 5 4 17 86 47 5 31 63 100 100 100 100 100 100 100
0 1 5 14 0 1 0 0 0 0 0 0 0 0 0 0 0 0 0 0 0 0 0 0 0 0 4 5 5 7 37 99 20 21 66 22 100 100 100 100 100 100 100
20 9 4 0 0 0 0 0 0 0 0 0 0 0 0 0 0 0 0 0 0 0 0 0 0 1 5 0 5 5 9 5 49 62 100 95 100 100 100 100 100 100 100
1 0 43 0 0 0 0 0 0 0 0 0 0 0 0 0 0 0 0 0 0 0 0 0 5 5 5 2 5 5 5 16 67 97 99 97 100 100 100 100 100 100 100
0 0 0 0 0 0 0 0 0 0 0 0 0 0 3 1 0 0 0 1 0 0 0 0 0 2 2 5 5 5 10 46 15 49 100 87 100 100 100 100 100 100 100
0 6 16 24 6 1 0 0 0 0 0 0 0 0 0 8 17 2 2 0 0 0 4 0 2 3 5 5 5 17 14 34 100 100 100 97 100 100 100 100 100 100 100
0 19 17 25 6 44 5 0 0 0 0 0 0 0 5 5 72 65 82 5 5 2 5 5 0 1 5 5 58 5 47 5 87 58 84 100 100 100 100 100 100 100 100
0 16 12 4 10 8 5 14 1 0 0 0 1 2 5 90 100 65 71 46 5 6 5 5 0 22 29 100 96 62 5 6 98 24 97 100 100 100 100 100 100 100 100
0 3 14 2 2 2 0 15 54 26 1 10 48 8 68 100 100 100 44 36 17 30 16 40 1 10 31 86 9 14 58 5 100 100 49 97 100 100 100 100 100 100 100
0 0 0 6 0 0 0 5 0 0 0 0 1 11 2 69 100 100 69 100 72 6 53 99 3 28 40 5 8 47 6 77 39 100 79 100 100 100 100 100 100 100 100
0 0 1 3 0 0 0 0 0 0 5 5 62 22 46 79 100 94 98 100 100 9 78 81 18 8 18 42 63 6 14 50 66 100 62 77 100 100 100 100 100 100 100
0 0 0 18 1 5 0 0 0 0 5 8 5 23 34 8 73 96 100 100 100 68 95 38 18 12 59 46 58 23 6 100 100 78 100 70 25 100 100 100 100 100 100
2 0 0 0 59 5 7 0 0 0 0 0 53 74 31 31 56 9 100 100 100 100 100 100 100 84 87 19 17 58 12 30 32 84 100 100 5 55 100 100 100 100 100
5 7 69 5 0 2 5 5 4 3 0 2 2 99 28 8 6 0 70 100 100 100 100 100 100 83 58 67 42 100 22 10 13 82 100 100 79 6 69 100 100 100 98
5 19 96 44 5 5 12 9 5 5 4 0 0 71 58 0 0 0 4 100 100 100 100 100 100 100 77 89 9 19 11 7 9 100 48 52 100 100 99 63 100 100 85
100 100 100 70 86 46 36 85 6 5 5 2 0 3 100 0 0 0 0 89 100 100 100 100 100 100 100 100 60 62 33 8 17 27 82 41 51 88 100 100 61 100 100
100 100 100 86 32 33 47 49 39 12 5 68 2 0 10 12 0 0 0 9 100 100 100 100 100 100 100 87 100 84 38 55 15 17 100 74 51 99 100 100 100 100 49
82 19 82 79 100 74 5 5 17 5 3 39 6 0 0 39 0 0 0 0 98 100 100 100 100 100 100 97 100 96 100 44 6 39 100 87 73 21 44 68 100 100 84
100 100 100 11 5 5 2 2 0 0 0 4 78 0 0 26 0 0 0 2 68 100 100 100 100 100 100 100 100 100 100 99 39 44 76 100 100 100 83 100 100 100 100
4 27 11 8 2 1 4 5 1 0 0 0 49 50 0 0 0 0 0 5 2 100 100 100 75 100 100 100 100 96 90 89 100 100 97 100 99 96 48 66 81 92 100
3 70 33 35 25 4 0 3 0 0 0 43 25 100 31 4 5 20 0 8 24 88 100 100 96 100 100 100 100 71 40 79 49 34 10 87 99 90 79 58 78 36 59
7 100 78 73 80 24 0 0 0 0 0 4 56 72 100 62 10 64 5 0 16 44 100 100 100 100 100 100 100 90 10 41 100 50 76 45 40 100 85 55 75 65 32
84 100 100 100 100 80 1 4 0 0 0 0 96 91 100 100 5 100 9 2 10 6 100 100 100 100 100 100 100 100 80 16 22 64 58 50 97 94 84 34 98 83 71
72 100 100 100 100 89 36 5 4 0 0 0 28 98 100 100 51 100 4 68 5 11 78 100 100 100 100 100 100 100 100 11 68 70 56 84 5 41 85 84 73 84 100

GFSSE_prec_cloud_144.txt.gz
Cloud_Cover
4 3 5 5 5 5 13 9 8 5 5 5 5 0 0 0 0 0 0 0 0 0 0 0 0 0 0 0 0 0 0 72 52 24 50 68 100 100 100 100 100 100 100
3 4 11 2 4 5 5 5 7 8 5 5 0 0 0 0 0 0 0 0 0 0 16 0 0 0 0 0 0 0 25 98 31 99 58 55 94 100 100 100 100 100 100
0 0 0 0 0 0 1 0 4 4 5 5 0 0 0 0 0 0 0 0 0 0 0 0 0 0 0 0 0 0 6 37 38 60 5 27 56 51 92 100 100 100 100
1 0 0 0 0 1 0 0 0 0 0 0 0 0 0 0 0 0 0 0 0 0 0 0 0 0 0 0 0 0 16 28 87 6 5 16 39 27 100 100 100 100 100
78 99 86 49 47 30 4 0 0 0 0 0 0 0 0 0 0 0 0 0 0 0 0 0 0 0 0 0 0 0 3 5 20 53 56 70 65 100 100 100 100 100 100
3 0 30 2 1 0 0 0 0 0 0 0 0 0 0 0 0 0 0 0 0 0 0 5 0 0 0 0 0 0 5 2 40 66 100 99 65 100 100 100 100 100 100
0 0 0 0 0 0 0 0 0 0 0 0 0 0 0 0 2 0 0 0 0 0 3 81 5 0 0 0 0 5 5 5 68 100 94 99 96 100 100 100 100 100 100
0 7 0 19 0 0 0 0 0 0 0 0 0 0 0 0 4 24 9 4 5 5 5 5 5 0 0 0 3 5 5 31 100 100 100 100 50 100 100 100 100 100 100
0 3 28 0 14 21 0 0 0 0 0 0 0 0 0 0 0 6 5 9 5 39 17 5 5 5 3 0 5 70 6 21 100 100 100 100 97 100 100 100 100 100 100
0 0 0 74 0 0 8 7 0 0 0 0 0 1 0 6 0 0 5 56 7 5 16 50 6 5 3 0 5 68 5 5 98 100 100 100 100 100 100 100 100 100 100
1 0 0 41 35 0 0 1 60 19 1 10 46 11 67 0 0 0 30 74 100 37 26 5 5 5 9 16 4 5 5 0 5 89 97 100 100 100 93 94 100 100 100
0 0 13 0 27 57 9 8 0 0 0 0 0 3 0 0 0 0 3 47 100 100 86 57 5 26 60 6 24 49 5 26 100 100 60 19 42 95 100 100 100 100 100
0 0 3 96 50 8 35 0 0 0 0 0 0 0 0 0 0 41 48 27 62 26 11 92 59 44 5 5 5 5 3 91 100 100 100 100 89 81 100 100 100 100 100
0 0 4 7 96 100 1 18 0 0 0 0 0 0 0 0 0 10 36 64 3 39 40 99 100 5 5 5 9 9 42 38 89 100 100 100 95 53 100 100 100 100 100
87 81 14 5 5 39 100 30 21 5 0 0 0 0 0 1 33 82 18 88 1 0 71 100 100 87 5 5 94 89 39 6 16 28 91 100 99 40 76 72 100 100 100
98 100 100 6 0 5 70 91 67 11 18 0 0 3 0 0 0 3 7 85 20 0 56 96 100 100 5 4 100 99 53 20 5 5 55 97 98 95 66 100 100 100 72
0 0 1 6 75 100 81 50 61 93 3 13 4 0 1 5 5 0 0 6 3 3 84 100 100 99 35 5 61 84 45 54 92 12 65 46 81 86 10 98 100 100 100
100 100 37 9 99 100 100 100 100 100 98 2 0 5 0 1 3 0 0 0 0 0 22 64 99 100 59 24 100 100 97 40 21 77 64 5 5 5 71 84 98 72 96
85 100 100 100 100 100 100 100 100 100 100 97 41 13 5 5 0 0 0 0 0 0 0 0 83 100 86 17 92 100 89 5 55 100 94 17 5 5 56 100 94 100 100
15 57 100 100 100 100 100 100 100 100 100 91 100 98 100 100 92 16 0 0 0 0 0 0 21 100 100 59 74 100 75 84 25 83 66 40 56 5 5 5 5 42 100
1 5 5 6 72 85 88 100 100 82 56 45 17 100 84 8 59 98 4 0 0 0 0 0 0 100 100 70 98 100 100 94 60 5 5 70 53 12 5 5 5 34 74
0 0 0 0 3 37 75 25 2 0 3 0 3 4 100 100 63 99 5 0 0 0 0 0 0 73 100 100 100 100 100 53 100 88 81 8 76 90 48 27 6 17 92
2 3 0 2 0 3 8 14 5 0 0 0 0 0 0 96 99 29 5 5 0 0 0 0 0 4 100 100 100 100 100 65 92 5 26 90 23 22 98 26 71 14 10
5 5 5 11 98 91 72 71 84 69 0 0 0 0 0 5 99 15 17 4 2 0 0 0 0 0 89 100 100 100 100 100 100 75 9 5 8 38 91 51 64 56 11
5 5 5 36 100 90 97 100 100 97 1 0 0 0 0 1 100 100 100 37 6 0 0 0 0 0 10 100 100 100 100 100 100 72 12 39 78 86 99 94 95 61 12
5 6 31 76 100 100 100 100 100 100 76 1 0 0 0 82 100 100 99 85 6 31 8 0 0 0 0 73 100 100 100 100 100 100 82 30 38 22 56 98 93 54 25

GFSSE_prec_cloud_147.txt.gz
Cloud_Cover
1 2 0 0 0 2 0 0 0 4 5 3 0 0 0 1 0 0 0 0 0 0 0 0 0 0 0 0 0 0 0 49 92 15 6 30 69 90 100 100 100 100 100
0 0 0 0 0 0 0 0 0 0 0 3 0 1 0 0 0 0 0 0 0 0 0 0 0 0 0 0 0 0 4 90 100 7 5 88 48 96 100 100 100 100 100
4 0 0 0 0 0 0 0 0 0 0 1 0 4 0 0 0 0 0 0 0 0 0 0 0 0 0 0 0 0 91 100 86 34 13 5 5 85 100 100 100 100 100
5 2 5 5 5 2 2 0 0 3 4 4 3 0 0 0 0 0 0 0 0 0 0 0 0 0 0 0 0 0 85 100 87 33 14 5 9 31 98 100 100 100 100
17 10 48 5 4 5 5 1 0 3 5 4 3 3 0 0 0 0 0 0 0 0 0 0 0 1 0 0 0 0 0 0 6 8 14 72 63 36 25 99 100 100 100
2 3 4 1 0 0 0 0 0 0 0 0 0 0 0 0 0 0 0 0 0 0 0 0 5 5 11 5 0 0 0 2 2 23 75 79 56 90 59 99 100 100 100
0 0 0 0 0 0 0 0 0 0 0 0 0 0 0 0 0 0 0 0 0 0 2 0 5 5 5 5 0 0 4 99 3 34 98 100 100 99 100 100 100 100 100
0 0 0 0 0 0 0 0 0 0 0 0 0 0 0 0 0 0 0 0 5 5 3 2 5 5 23 4 0 5 16 5 14 100 100 100 100 100 100 100 100 100 100
0 0 4 6 0 0 0 0 0 0 0 0 0 0 0 0 0 0 0 0 5 55 48 5 55 73 32 6 0 6 21 41 100 100 100 100 100 97 100 100 100 100 100
0 0 1 2 18 20 14 0 0 0 0 0 1 2 0 0 0 0 0 0 3 5 31 5 74 6 75 17 5 29 5 91 100 100 100 100 100 100 100 100 100 100 100
0 1 17 0 38 5 8 5 3 0 0 0 12 12 97 2 0 0 0 0 0 5 7 5 43 51 61 7 20 5 5 32 99 100 100 100 100 100 81 49 100 100 100
0 5 5 6 86 1 28 12 24 9 8 19 28 91 26 4 0 0 0 0 0 5 3 6 84 45 76 48 67 17 5 4 5 100 100 100 100 100 100 100 90 98 100
1 5 5 50 67 98 96 43 35 67 31 17 0 13 14 0 0 0 0 0 5 2 26 24 83 100 82 6 8 25 5 4 100 100 100 100 100 100 100 100 72 100 100
1 24 100 97 99 100 100 100 95 91 100 67 0 0 10 2 0 0 0 0 1 9 10 19 44 47 7 5 5 2 6 45 100 100 100 100 100 100 100 87 48 48 100
0 0 0 4 2 2 8 16 26 100 96 96 4 0 0 0 0 0 0 0 0 0 3 0 0 1 22 4 4 15 81 15 100 100 100 100 100 100 100 100 75 35 100
0 0 0 0 0 0 0 0 1 4 91 100 20 5 4 0 0 0 0 0 0 1 3 4 0 0 1 5 10 50 59 67 43 100 100 100 100 100 100 100 46 86 60
0 0 0 0 0 34 33 6 32 56 17 100 100 75 100 9 3 0 0 0 0 0 2 0 0 0 0 0 5 71 100 100 83 75 76 100 93 98 100 100 100 100 100
0 0 0 0 0 0 5 46 96 43 62 74 100 100 93 18 52 18 0 0 0 4 0 0 0 26 55 0 2 27 100 100 100 100 100 41 100 28 30 5 44 23 100
0 0 0 0 0 2 7 50 89 100 100 100 100 100 100 94 99 58 52 0 0 0 3 3 1 3 0 44 0 2 39 99 100 98 100 95 74 50 15 6 35 95 66
0 0 0 0 0 0 0 0 14 11 71 100 100 100 100 99 85 100 100 98 12 3 5 1 0 0 0 0 0 2 5 48 100 100 100 100 88 13 17 12 11 5 23
0 0 0 0 0 0 2 7 44 9 3 1 58 100 100 100 98 100 100 100 100 5 80 100 25 0 0 1 99 83 47 84 100 100 100 100 100 15 8 14 16 14 5
1 8 54 4 4 2 5 1 8 27 11 4 0 0 29 91 100 81 72 100 100 92 65 70 100 4 0 0 38 79 100 96 88 100 100 100 100 26 6 6 73 46 12
0 0 0 1 2 5 9 12 16 85 77 32 0 0 0 0 0 63 79 100 100 100 83 67 9 0 0 2 0 32 89 54 58 77 100 100 100 49 6 14 46 78 69
0 0 0 0 6 20 87 92 100 100 100 100 100 35 0 0 0 0 55 100 100 100 100 100 100 100 66 4 26 1 0 5 72 98 99 100 59 12 29 31 81 79 73
0 0 0 5 6 23 100 100 100 100 100 100 100 100 42 0 0 0 4 100 100 100 100 100 100 100 100 2 0 0 0 2 6 96 100 90 42 5 37 89 87 94 83
4 0 5 6 5 64 100 100 100 100 100 100 100 100 97 21 0 0 88 100 100 100 100 100 100 100 100 64 0 0 0 0 14 71 100 100 67 30 35 100 100 98 56

GFSSE_prec_cloud_150.txt.gz
Cloud_Cover
37 5 3 5 3 0 0 0 0 0 0 0 0 0 0 0 0 0 0 0 0 0 0 0 0 0 0 0 0 0 0 28 0 0 2 46 100 95 6 17 100 100 100
0 0 0 0 0 0 0 0 0 0 0 0 0 0 0 0 0 0 0 0 0 0 0 0 0 0 0 0 0 0 0 0 0 17 20 98 100 100 25 5 89 100 100
5 5 3 0 0 1 0 0 0 0 0 0 0 0 0 0 0 0 0 0 0 0 0 0 0 0 0 0 0 0 0 8 5 5 85 23 12 46 35 84 78 100 100
2 0 0 0 0 0 0 0 0 0 0 0 0 0 0 0 0 0 0 0 0 0 0 0 0 0 0 2 0 0 0 0 14 62 5 5 16 9 62 100 100 100 100
2 19 2 2 2 3 0 0 0 0 0 0 0 0 0 0 0 0 0 0 0 0 0 0 0 0 2 1 1 0 3 2 55 5 5 10 5 8 5 91 100 100 100
7 36 36 5 0 0 0 0 0 0 0 0 0 0 0 0 0 0 0 0 0 0 0 0 0 0 0 4 29 4 34 2 6 35 51 71 58 50 100 39 100 100 100
0 0 0 0 0 0 0 0 0 0 0 0 0 0 0 0 0 0 0 0 0 0 0 0 0 0 0 5 17 4 10 5 5 13 54 100 100 100 100 100 100 100 100
0 0 0 0 0 0 0 0 0 0 0 0 0 0 0 0 0 0 0 0 0 0 0 0 0 1 0 5 5 6 5 7 9 13 92 100 96 99 96 100 100 100 100
0 1 1 0 3 0 0 0 0 0 0 0 0 0 0 0 0 0 0 0 0 0 0 0 0 5 5 24 41 10 46 44 39 100 100 100 100 100 100 100 100 100 100
0 21 0 34 36 0 5 5 0 0 3 5 6 10 0 0 0 0 0 0 0 0 0 0 0 2 5 5 15 26 47 5 5 100 100 100 98 100 100 100 100 100 100
1 13 30 19 52 100 96 26 23 7 5 100 96 33 99 17 0 0 0 0 0 0 0 0 0 1 8 38 68 38 34 18 5 100 100 100 100 100 100 100 100 100 100
84 100 100 99 15 20 75 47 71 97 99 40 43 84 100 61 11 3 1 0 0 0 0 0 0 3 40 37 90 20 5 8 2 100 100 100 100 100 100 100 100 97 88
11 67 20 5 2 1 2 14 94 100 100 93 20 22 68 100 32 19 25 9 9 2 25 22 29 48 99 40 92 59 16 29 32 100 100 100 100 100 100 100 100 100 100
72 1 0 0 0 0 0 0 0 81 99 100 100 92 53 98 100 27 26 19 18 22 27 37 97 99 99 20 13 44 12 4 17 95 100 100 100 100 100 100 100 100 100
5 4 4 5 5 4 0 0 0 0 0 24 85 95 98 70 85 18 11 8 8 24 24 43 46 62 46 16 21 11 16 11 2 10 100 100 100 100 100 100 100 97 29
97 95 100 6 0 0 0 0 0 0 0 0 7 98 100 97 48 51 5 4 5 0 1 3 10 20 11 1 10 11 11 8 5 89 100 100 100 100 100 100 99 92 35
41 36 9 4 0 0 0 0 0 0 0 0 2 5 87 100 100 90 64 0 4 4 0 0 6 7 9 5 0 13 68 100 94 66 100 100 100 100 100 100 100 100 57
14 5 5 5 0 0 0 0 0 0 0 2 1 5 99 76 100 77 97 91 0 3 4 0 0 1 5 2 5 58 55 97 100 100 100 100 100 100 100 100 100 44 100
0 0 0 0 0 0 0 0 3 1 0 0 30 69 36 99 73 100 97 98 39 1 48 6 1 0 4 3 14 32 58 78 47 100 100 100 100 100 100 100 100 74 72
0 0 0 0 0 0 0 0 0 0 0 1 0 0 10 7 91 100 99 100 100 7 3 60 23 3 12 3 2 33 76 51 100 87 100 100 97 100 100 100 95 6 56
4 0 0 0 0 0 0 0 0 0 0 0 2 0 0 6 7 94 100 100 98 100 23 26 4 10 80 15 7 84 76 90 68 99 100 100 100 100 100 100 92 86 48
4 0 0 0 0 0 0 0 0 0 2 8 0 4 29 1 2 5 32 100 98 94 100 90 82 100 100 100 7 52 100 100 100 76 65 96 100 99 100 100 100 99 76
0 0 0 0 0 0 0 0 0 0 1 40 40 73 100 97 18 3 8 15 100 100 100 100 100 100 100 100 71 2 92 93 71 100 86 89 95 100 100 100 100 100 92
0 0 0 0 0 0 0 27 62 82 100 89 99 100 100 100 100 30 0 0 0 41 100 100 100 100 100 40 65 99 88 61 99 100 100 88 90 100 100 100 100 94 69
0 0 0 0 0 2 5 51 74 100 100 100 100 100 100 100 100 100 4 0 0 30 11 100 100 100 100 100 100 100 100 100 100 12 99 100 100 99 100 100 100 100 75
0 0 0 1 0 5 21 66 77 100 100 100 100 100 100 100 100 100 15 0 0 0 22 94 100 100 100 100 100 100 100 100 100 4 27 73 56 87 100 100 98 83 84